Observation data for Fort Lancaster on 10/18/2019      Previous  Date       Current Mesonet Observations  Soil Data  Daily Summary Page  Observations in Plain Language
KLA1 180500Z 11007KT 18/11 A2992 RMK A01 T01840106  RH  060%=      5-min Rain = 0
KLA1 180501Z 11006KT 18/11 A2992 RMK A01 T01840106  RH  060%=      5-min Rain = 0
KLA1 180502Z 11007KT 18/11 A2992 RMK A01 T01840105  RH  060%=      5-min Rain = 0
KLA1 180503Z 12005KT 18/11 A2992 RMK A01 T01840105  RH  060%=      5-min Rain = 0
KLA1 180504Z 12007KT 18/11 A2992 RMK A01 T01830105  RH  060%=      5-min Rain = 0
KLA1 180505Z 10007KT 18/11 A2992 RMK A01 T01830105  RH  060%=      5-min Rain = 0
KLA1 180506Z 11007KT 18/11 A2992 RMK A01 T01830105  RH  060%=      5-min Rain = 0
KLA1 180507Z 11008KT 18/11 A2992 RMK A01 T01820105  RH  060%=      5-min Rain = 0
KLA1 180508Z 10007KT 18/11 A2992 RMK A01 T01830105  RH  060%=      5-min Rain = 0
KLA1 180509Z 10007KT 18/11 A2992 RMK A01 T01830105  RH  060%=      5-min Rain = 0
KLA1 180510Z 11007KT 18/11 A2992 RMK A01 T01820105  RH  060%=      5-min Rain = 0
KLA1 180511Z 10007KT 18/10 A2992 RMK A01 T01820104  RH  060%=      5-min Rain = 0
KLA1 180512Z 10007KT 18/10 A2992 RMK A01 T01820104  RH  060%=      5-min Rain = 0
KLA1 180513Z 11006KT 18/10 A2992 RMK A01 T01820104  RH  060%=      5-min Rain = 0
KLA1 180514Z 10007KT 18/10 A2992 RMK A01 T01820104  RH  060%=      5-min Rain = 0
KLA1 180515Z 10006KT 18/10 A2992 RMK A01 T01820104  RH  060%=      5-min Rain = 0
KLA1 180516Z 10006KT 18/10 A2992 RMK A01 T01820104  RH  060%=      5-min Rain = 0
KLA1 180517Z 10008KT 18/10 A2992 RMK A01 T01820104  RH  060%=      5-min Rain = 0
KLA1 180518Z 10007KT 18/10 A2992 RMK A01 T01820104  RH  060%=      5-min Rain = 0
KLA1 180519Z 10007KT 18/10 A2992 RMK A01 T01820103  RH  060%=      5-min Rain = 0
KLA1 180520Z 10007KT 18/10 A2992 RMK A01 T01820103  RH  060%=      5-min Rain = 0
KLA1 180521Z 10007KT 18/10 A2992 RMK A01 T01820103  RH  060%=      5-min Rain = 0
KLA1 180522Z 10007KT 18/10 A2992 RMK A01 T01810103  RH  060%=      5-min Rain = 0
KLA1 180523Z 10007KT 18/10 A2992 RMK A01 T01820103  RH  060%=      5-min Rain = 0
KLA1 180524Z 10006KT 18/10 A2992 RMK A01 T01820103  RH  060%=      5-min Rain = 0
KLA1 180525Z 10007KT 18/10 A2992 RMK A01 T01810103  RH  060%=      5-min Rain = 0
KLA1 180526Z 10007KT 18/10 A2992 RMK A01 T01810103  RH  060%=      5-min Rain = 0
KLA1 180527Z 10007KT 18/10 A2992 RMK A01 T01810102  RH  060%=      5-min Rain = 0
KLA1 180528Z 10008KT 18/10 A2992 RMK A01 T01810102  RH  060%=      5-min Rain = 0
KLA1 180529Z 10008KT 18/10 A2992 RMK A01 T01810102  RH  060%=      5-min Rain = 0
KLA1 180530Z 10007KT 18/10 A2992 RMK A01 T01810102  RH  060%=      5-min Rain = 0
KLA1 180531Z 10008KT 18/10 A2992 RMK A01 T01810102  RH  060%=      5-min Rain = 0
KLA1 180532Z 09007KT 18/10 A2991 RMK A01 T01810102  RH  060%=      5-min Rain = 0
KLA1 180533Z 09008KT 18/10 A2991 RMK A01 T01810102  RH  060%=      5-min Rain = 0
KLA1 180534Z 10007KT 18/10 A2991 RMK A01 T01810102  RH  060%=      5-min Rain = 0
KLA1 180535Z 10007KT 18/10 A2991 RMK A01 T01810102  RH  060%=      5-min Rain = 0
KLA1 180536Z 09007KT 18/10 A2991 RMK A01 T01810101  RH  060%=      5-min Rain = 0
KLA1 180537Z 10006KT 18/10 A2991 RMK A01 T01810101  RH  060%=      5-min Rain = 0
KLA1 180538Z 10006KT 18/10 A2991 RMK A01 T01800101  RH  060%=      5-min Rain = 0
KLA1 180539Z 10007KT 18/10 A2991 RMK A01 T01800101  RH  060%=      5-min Rain = 0
KLA1 180540Z 10006KT 18/10 A2991 RMK A01 T01800101  RH  060%=      5-min Rain = 0
KLA1 180541Z 10006KT 18/10 A2991 RMK A01 T01800101  RH  060%=      5-min Rain = 0
KLA1 180542Z 10006KT 18/10 A2991 RMK A01 T01800100  RH  060%=      5-min Rain = 0
KLA1 180543Z 10006KT 18/10 A2991 RMK A01 T01790100  RH  060%=      5-min Rain = 0
KLA1 180544Z 10006KT 18/10 A2991 RMK A01 T01790100  RH  060%=      5-min Rain = 0
KLA1 180545Z 10007KT 18/10 A2991 RMK A01 T01790100  RH  060%=      5-min Rain = 0
KLA1 180546Z 10006KT 18/10 A2991 RMK A01 T01790100  RH  060%=      5-min Rain = 0
KLA1 180547Z 08006KT 18/10 A2991 RMK A01 T01790100  RH  060%=      5-min Rain = 0
KLA1 180548Z 09006KT 18/10 A2991 RMK A01 T01790100  RH  060%=      5-min Rain = 0
KLA1 180549Z 09006KT 18/10 A2991 RMK A01 T01780100  RH  060%=      5-min Rain = 0
KLA1 180550Z 10007KT 18/10 A2991 RMK A01 T01780099  RH  060%=      5-min Rain = 0
KLA1 180551Z 10007KT 18/10 A2991 RMK A01 T01770099  RH  060%=      5-min Rain = 0
KLA1 180552Z 10007KT 18/10 A2991 RMK A01 T01770099  RH  060%=      5-min Rain = 0
KLA1 180553Z 10007KT 18/10 A299 RMK A01 T01770099  RH  060%=      5-min Rain = 0
KLA1 180554Z 10007KT 18/10 A299 RMK A01 T01770099  RH  060%=      5-min Rain = 0
KLA1 180555Z 10007KT 18/10 A299 RMK A01 T01770099  RH  060%=      5-min Rain = 0
KLA1 180556Z 09006KT 18/10 A299 RMK A01 T01780098  RH  060%=      5-min Rain = 0
KLA1 180557Z 10007KT 18/10 A299 RMK A01 T01770098  RH  060%=      5-min Rain = 0
KLA1 180558Z 10007KT 18/10 A299 RMK A01 T01770098  RH  060%=      5-min Rain = 0
KLA1 180559Z 10008KT 18/10 A299 RMK A01 T01770098  RH  060%=      5-min Rain = 0
KLA1 180600Z 10007KT 18/10 A299 RMK A01 T01780098  RH  059%=      5-min Rain = 0
KLA1 180601Z 10007KT 18/10 A299 RMK A01 T01780098  RH  059%=      5-min Rain = 0
KLA1 180602Z 10007KT 18/10 A299 RMK A01 T01780098  RH  059%=      5-min Rain = 0
KLA1 180603Z 10008KT 18/10 A299 RMK A01 T01780098  RH  060%=      5-min Rain = 0
KLA1 180604Z 09009KT 18/10 A299 RMK A01 T01780098  RH  059%=      5-min Rain = 0
KLA1 180605Z 09008KT 18/10 A299 RMK A01 T01780098  RH  059%=      5-min Rain = 0
KLA1 180606Z 09008KT 18/10 A299 RMK A01 T01780097  RH  059%=      5-min Rain = 0
KLA1 180607Z 10007KT 18/10 A299 RMK A01 T01780098  RH  059%=      5-min Rain = 0
KLA1 180608Z 09008KT 18/10 A299 RMK A01 T01780098  RH  059%=      5-min Rain = 0
KLA1 180609Z 09007KT 18/10 A299 RMK A01 T01780098  RH  059%=      5-min Rain = 0
KLA1 180610Z 09007KT 18/10 A299 RMK A01 T01770097  RH  059%=      5-min Rain = 0
KLA1 180611Z 10008KT 18/10 A299 RMK A01 T01770097  RH  060%=      5-min Rain = 0
KLA1 180612Z 10009KT 18/10 A299 RMK A01 T01770097  RH  059%=      5-min Rain = 0
KLA1 180613Z 10007KT 18/10 A299 RMK A01 T01770097  RH  059%=      5-min Rain = 0
KLA1 180614Z 10008KT 18/10 A299 RMK A01 T01770097  RH  059%=      5-min Rain = 0
KLA1 180615Z 10007KT 18/10 A299 RMK A01 T01760097  RH  060%=      5-min Rain = 0
KLA1 180616Z 10009KT 18/10 A299 RMK A01 T01760097  RH  060%=      5-min Rain = 0
KLA1 180617Z 10008KT 18/10 A299 RMK A01 T01760097  RH  060%=      5-min Rain = 0
KLA1 180618Z 10008KT 18/10 A299 RMK A01 T01760097  RH  060%=      5-min Rain = 0
KLA1 180619Z 10008KT 18/10 A299 RMK A01 T01760096  RH  060%=      5-min Rain = 0
KLA1 180620Z 10009KT 18/10 A299 RMK A01 T01760096  RH  060%=      5-min Rain = 0
KLA1 180621Z 10010KT 18/10 A299 RMK A01 T01760096  RH  060%=      5-min Rain = 0
KLA1 180622Z 10010KT 18/10 A299 RMK A01 T01760096  RH  059%=      5-min Rain = 0
KLA1 180623Z 10008G13KT 18/10 A299 RMK A01 T01760096  RH  059%=      5-min Rain = 0
KLA1 180624Z 10009KT 18/10 A299 RMK A01 T01760096  RH  059%=      5-min Rain = 0
KLA1 180625Z 10010KT 18/10 A299 RMK A01 T01770096  RH  059%=      5-min Rain = 0
KLA1 180626Z 10010KT 18/10 A299 RMK A01 T01770095  RH  059%=      5-min Rain = 0
KLA1 180627Z 10010KT 18/10 A299 RMK A01 T01770095  RH  059%=      5-min Rain = 0
KLA1 180628Z 10009KT 18/10 A299 RMK A01 T01770095  RH  059%=      5-min Rain = 0
KLA1 180629Z 10009KT 18/10 A299 RMK A01 T01770095  RH  059%=      5-min Rain = 0
KLA1 180630Z 10008KT 18/10 A299 RMK A01 T01770095  RH  059%=      5-min Rain = 0
KLA1 180631Z 10009KT 18/10 A299 RMK A01 T01770095  RH  059%=      5-min Rain = 0
KLA1 180632Z 10008KT 18/10 A299 RMK A01 T01770095  RH  059%=      5-min Rain = 0
KLA1 180633Z 10009KT 18/10 A299 RMK A01 T01770095  RH  059%=      5-min Rain = 0
KLA1 180634Z 11010KT 18/10 A299 RMK A01 T01760095  RH  059%=      5-min Rain = 0
KLA1 180635Z 11011KT 18/09 A2989 RMK A01 T01760094  RH  059%=      5-min Rain = 0
KLA1 180636Z 10008KT 18/09 A2989 RMK A01 T01760094  RH  059%=      5-min Rain = 0
KLA1 180637Z 10008KT 18/09 A2989 RMK A01 T01760094  RH  059%=      5-min Rain = 0
KLA1 180638Z 10009KT 18/09 A2989 RMK A01 T01760094  RH  059%=      5-min Rain = 0
KLA1 180639Z 10009KT 18/09 A2989 RMK A01 T01760094  RH  059%=      5-min Rain = 0
KLA1 180640Z 10009KT 18/09 A2989 RMK A01 T01760094  RH  059%=      5-min Rain = 0
KLA1 180641Z 10009KT 18/09 A2989 RMK A01 T01760094  RH  059%=      5-min Rain = 0
KLA1 180642Z 10009KT 18/09 A2989 RMK A01 T01760094  RH  059%=      5-min Rain = 0
KLA1 180643Z 11009KT 18/09 A2989 RMK A01 T01760094  RH  059%=      5-min Rain = 0
KLA1 180644Z 11009KT 18/09 A2989 RMK A01 T01760094  RH  059%=      5-min Rain = 0
KLA1 180645Z 11009KT 18/09 A2989 RMK A01 T01750094  RH  059%=      5-min Rain = 0
KLA1 180646Z 10008KT 18/09 A2989 RMK A01 T01750094  RH  059%=      5-min Rain = 0
KLA1 180647Z 11007KT 18/09 A2989 RMK A01 T01750094  RH  059%=      5-min Rain = 0
KLA1 180648Z 11007KT 17/09 A2989 RMK A01 T01740094  RH  059%=      5-min Rain = 0
KLA1 180649Z 11007KT 17/09 A2989 RMK A01 T01740093  RH  059%=      5-min Rain = 0
KLA1 180650Z 11008KT 17/09 A2989 RMK A01 T01730094  RH  059%=      5-min Rain = 0
KLA1 180651Z 11007KT 17/09 A2989 RMK A01 T01720093  RH  060%=      5-min Rain = 0
KLA1 180652Z 11008KT 17/09 A2989 RMK A01 T01720093  RH  060%=      5-min Rain = 0
KLA1 180653Z 11008KT 17/09 A2989 RMK A01 T01720093  RH  060%=      5-min Rain = 0
KLA1 180654Z 12009KT 17/09 A2989 RMK A01 T01720093  RH  060%=      5-min Rain = 0
KLA1 180655Z 11009KT 17/09 A2989 RMK A01 T01720093  RH  060%=      5-min Rain = 0
KLA1 180656Z 11007KT 17/09 A2989 RMK A01 T01720093  RH  060%=      5-min Rain = 0
KLA1 180657Z 11007KT 17/09 A2989 RMK A01 T01710093  RH  060%=      5-min Rain = 0
KLA1 180658Z 12007KT 17/09 A2989 RMK A01 T01710093  RH  060%=      5-min Rain = 0
KLA1 180659Z 12007KT 17/09 A2989 RMK A01 T01700093  RH  060%=      5-min Rain = 0
KLA1 180700Z 11006KT 17/09 A2989 RMK A01 T01700093  RH  060%=      5-min Rain = 0
KLA1 180701Z 12007KT 17/09 A2989 RMK A01 T01690093  RH  061%=      5-min Rain = 0
KLA1 180702Z 11007KT 17/09 A2989 RMK A01 T01690093  RH  061%=      5-min Rain = 0
KLA1 180703Z 12007G12KT 17/09 A2989 RMK A01 T01690093  RH  061%=      5-min Rain = 0
KLA1 180704Z 12008KT 17/09 A2989 RMK A01 T01690092  RH  061%=      5-min Rain = 0
KLA1 180705Z 12008KT 17/09 A2989 RMK A01 T01690092  RH  061%=      5-min Rain = 0
KLA1 180706Z 12007KT 17/09 A2989 RMK A01 T01690093  RH  061%=      5-min Rain = 0
KLA1 180707Z 12007KT 17/09 A2989 RMK A01 T01680092  RH  061%=      5-min Rain = 0
KLA1 180708Z 12007KT 17/09 A2989 RMK A01 T01680093  RH  061%=      5-min Rain = 0
KLA1 180709Z 12007KT 17/09 A2989 RMK A01 T01680092  RH  061%=      5-min Rain = 0
KLA1 180710Z 12006KT 17/09 A2989 RMK A01 T01680093  RH  061%=      5-min Rain = 0
KLA1 180711Z 13007KT 17/09 A2989 RMK A01 T01680092  RH  061%=      5-min Rain = 0
KLA1 180712Z 13006KT 17/09 A2989 RMK A01 T01680092  RH  061%=      5-min Rain = 0
KLA1 180713Z 12005KT 17/09 A2989 RMK A01 T01680092  RH  061%=      5-min Rain = 0
KLA1 180714Z 12006KT 17/09 A2989 RMK A01 T01670092  RH  061%=      5-min Rain = 0
KLA1 180715Z 12007KT 17/09 A2989 RMK A01 T01670092  RH  061%=      5-min Rain = 0
KLA1 180716Z 12006KT 17/09 A2989 RMK A01 T01670092  RH  061%=      5-min Rain = 0
KLA1 180717Z 13006KT 17/09 A2989 RMK A01 T01660092  RH  061%=      5-min Rain = 0
KLA1 180718Z 12006KT 17/09 A2989 RMK A01 T01660092  RH  061%=      5-min Rain = 0
KLA1 180719Z 11006KT 17/09 A2989 RMK A01 T01660092  RH  062%=      5-min Rain = 0
KLA1 180720Z 13007KT 17/09 A2989 RMK A01 T01660092  RH  062%=      5-min Rain = 0
KLA1 180721Z 12006KT 17/09 A2989 RMK A01 T01660091  RH  061%=      5-min Rain = 0
KLA1 180722Z 12006KT 17/09 A2989 RMK A01 T01660092  RH  061%=      5-min Rain = 0
KLA1 180723Z 12006KT 17/09 A2989 RMK A01 T01650092  RH  062%=      5-min Rain = 0
KLA1 180724Z 12007KT 17/09 A2989 RMK A01 T01650091  RH  062%=      5-min Rain = 0
KLA1 180725Z 12006KT 17/09 A2989 RMK A01 T01650091  RH  062%=      5-min Rain = 0
KLA1 180726Z 12006KT 17/09 A2989 RMK A01 T01650091  RH  062%=      5-min Rain = 0
KLA1 180727Z 13006KT 16/09 A2989 RMK A01 T01640091  RH  062%=      5-min Rain = 0
KLA1 180728Z 13006KT 16/09 A2989 RMK A01 T01640091  RH  062%=      5-min Rain = 0
KLA1 180729Z 13007KT 16/09 A2989 RMK A01 T01640091  RH  062%=      5-min Rain = 0
KLA1 180730Z 13007KT 16/09 A2989 RMK A01 T01630091  RH  062%=      5-min Rain = 0
KLA1 180731Z 12006KT 16/09 A2989 RMK A01 T01630091  RH  062%=      5-min Rain = 0
KLA1 180732Z 13006KT 16/09 A2989 RMK A01 T01630091  RH  062%=      5-min Rain = 0
KLA1 180733Z 12006KT 16/09 A2989 RMK A01 T01630090  RH  062%=      5-min Rain = 0
KLA1 180734Z 12007KT 16/09 A2989 RMK A01 T01630091  RH  062%=      5-min Rain = 0
KLA1 180735Z 12008KT 16/09 A2989 RMK A01 T01630091  RH  062%=      5-min Rain = 0
KLA1 180736Z 12007KT 16/09 A2989 RMK A01 T01630090  RH  062%=      5-min Rain = 0
KLA1 180737Z 12007KT 16/09 A2989 RMK A01 T01630090  RH  062%=      5-min Rain = 0
KLA1 180738Z 12008KT 16/09 A2989 RMK A01 T01630091  RH  062%=      5-min Rain = 0
KLA1 180739Z 12007KT 16/09 A2989 RMK A01 T01630090  RH  062%=      5-min Rain = 0
KLA1 180740Z 12006KT 16/09 A2989 RMK A01 T01630090  RH  062%=      5-min Rain = 0
KLA1 180741Z 12008KT 16/09 A2989 RMK A01 T01630090  RH  062%=      5-min Rain = 0
KLA1 180742Z 13007KT 16/09 A2989 RMK A01 T01630090  RH  062%=      5-min Rain = 0
KLA1 180743Z 13007KT 16/09 A2989 RMK A01 T01630090  RH  062%=      5-min Rain = 0
KLA1 180744Z 13007KT 16/09 A2989 RMK A01 T01630090  RH  062%=      5-min Rain = 0
KLA1 180745Z 12007KT 16/09 A2989 RMK A01 T01620089  RH  062%=      5-min Rain = 0
KLA1 180746Z 12007KT 16/09 A2989 RMK A01 T01610089  RH  062%=      5-min Rain = 0
KLA1 180747Z 12008KT 16/09 A2989 RMK A01 T01610089  RH  062%=      5-min Rain = 0
KLA1 180748Z 12007KT 16/09 A2989 RMK A01 T01610089  RH  062%=      5-min Rain = 0
KLA1 180749Z 12007KT 16/09 A2989 RMK A01 T01610089  RH  062%=      5-min Rain = 0
KLA1 180750Z 12007KT 16/09 A2989 RMK A01 T01610089  RH  062%=      5-min Rain = 0
KLA1 180751Z 12008KT 16/09 A2989 RMK A01 T01610089  RH  062%=      5-min Rain = 0
KLA1 180752Z 12008KT 16/09 A2989 RMK A01 T01610089  RH  062%=      5-min Rain = 0
KLA1 180753Z 13007KT 16/09 A2989 RMK A01 T01610089  RH  062%=      5-min Rain = 0
KLA1 180754Z 12007KT 16/09 A2989 RMK A01 T01610088  RH  062%=      5-min Rain = 0
KLA1 180755Z 12008KT 16/09 A2989 RMK A01 T01610089  RH  062%=      5-min Rain = 0
KLA1 180756Z 13008KT 16/09 A2989 RMK A01 T01610089  RH  062%=      5-min Rain = 0
KLA1 180757Z 13007KT 16/09 A2989 RMK A01 T01610089  RH  062%=      5-min Rain = 0
KLA1 180758Z 13007KT 16/09 A2989 RMK A01 T01610089  RH  062%=      5-min Rain = 0
KLA1 180759Z 13008KT 16/09 A2989 RMK A01 T01600088  RH  062%=      5-min Rain = 0
KLA1 180800Z 12008KT 16/09 A2989 RMK A01 T01600088  RH  062%=      5-min Rain = 0
KLA1 180801Z 12008KT 16/09 A2989 RMK A01 T01600088  RH  062%=      5-min Rain = 0
KLA1 180802Z 12008KT 16/09 A2989 RMK A01 T01590088  RH  062%=      5-min Rain = 0
KLA1 180803Z 12008KT 16/09 A2989 RMK A01 T01590088  RH  063%=      5-min Rain = 0
KLA1 180804Z 12008KT 16/09 A2989 RMK A01 T01600088  RH  063%=      5-min Rain = 0
KLA1 180805Z 12009KT 16/09 A2988 RMK A01 T01600088  RH  063%=      5-min Rain = 0
KLA1 180806Z 12007KT 16/09 A2988 RMK A01 T01600088  RH  063%=      5-min Rain = 0
KLA1 180807Z 12008KT 16/09 A2988 RMK A01 T01590088  RH  063%=      5-min Rain = 0
KLA1 180808Z 12009KT 16/09 A2988 RMK A01 T01590088  RH  063%=      5-min Rain = 0
KLA1 180809Z 12009KT 16/09 A2988 RMK A01 T01590088  RH  063%=      5-min Rain = 0
KLA1 180810Z 13008KT 16/09 A2988 RMK A01 T01590088  RH  062%=      5-min Rain = 0
KLA1 180811Z 12009KT 16/09 A2988 RMK A01 T01590087  RH  062%=      5-min Rain = 0
KLA1 180812Z 12009KT 16/09 A2988 RMK A01 T01590087  RH  062%=      5-min Rain = 0
KLA1 180813Z 12008KT 16/09 A2988 RMK A01 T01600088  RH  062%=      5-min Rain = 0
KLA1 180814Z 12009KT 16/09 A2988 RMK A01 T01600088  RH  062%=      5-min Rain = 0
KLA1 180815Z 12008KT 16/09 A2988 RMK A01 T01600088  RH  062%=      5-min Rain = 0
KLA1 180816Z 12008KT 16/09 A2988 RMK A01 T01600088  RH  062%=      5-min Rain = 0
KLA1 180817Z 13007KT 16/09 A2988 RMK A01 T01600088  RH  062%=      5-min Rain = 0
KLA1 180818Z 12007KT 16/09 A2988 RMK A01 T01590087  RH  062%=      5-min Rain = 0
KLA1 180819Z 12007KT 16/09 A2988 RMK A01 T01590088  RH  063%=      5-min Rain = 0
KLA1 180820Z 12008KT 16/09 A2988 RMK A01 T01580087  RH  063%=      5-min Rain = 0
KLA1 180821Z 12008KT 16/09 A2988 RMK A01 T01580087  RH  063%=      5-min Rain = 0
KLA1 180822Z 12008KT 16/09 A2988 RMK A01 T01580087  RH  063%=      5-min Rain = 0
KLA1 180823Z 11008KT 16/09 A2988 RMK A01 T01590087  RH  062%=      5-min Rain = 0
KLA1 180824Z 12008KT 16/09 A2988 RMK A01 T01600088  RH  062%=      5-min Rain = 0
KLA1 180825Z 12008KT 16/09 A2988 RMK A01 T01600087  RH  062%=      5-min Rain = 0
KLA1 180826Z 12008KT 16/09 A2988 RMK A01 T01600087  RH  062%=      5-min Rain = 0
KLA1 180827Z 12007KT 16/09 A2988 RMK A01 T01600087  RH  062%=      5-min Rain = 0
KLA1 180828Z 12007KT 16/09 A2988 RMK A01 T01590087  RH  062%=      5-min Rain = 0
KLA1 180829Z 12008KT 16/09 A2988 RMK A01 T01590087  RH  062%=      5-min Rain = 0
KLA1 180830Z 11008KT 16/09 A2988 RMK A01 T01590087  RH  062%=      5-min Rain = 0
KLA1 180831Z 12007KT 16/09 A2988 RMK A01 T01590087  RH  062%=      5-min Rain = 0
KLA1 180832Z 11007KT 16/09 A2988 RMK A01 T01590087  RH  062%=      5-min Rain = 0
KLA1 180833Z 12009KT 16/09 A2988 RMK A01 T01580087  RH  062%=      5-min Rain = 0
KLA1 180834Z 12007KT 16/09 A2988 RMK A01 T01590087  RH  062%=      5-min Rain = 0
KLA1 180835Z 11007KT 16/09 A2988 RMK A01 T01590087  RH  062%=      5-min Rain = 0
KLA1 180836Z 11009KT 16/09 A2988 RMK A01 T01580086  RH  062%=      5-min Rain = 0
KLA1 180837Z 11008KT 16/09 A2987 RMK A01 T01580087  RH  062%=      5-min Rain = 0
KLA1 180838Z 11008KT 16/09 A2987 RMK A01 T01590087  RH  062%=      5-min Rain = 0
KLA1 180839Z 11008KT 16/09 A2987 RMK A01 T01590087  RH  062%=      5-min Rain = 0
KLA1 180840Z 11010KT 16/09 A2987 RMK A01 T01590087  RH  062%=      5-min Rain = 0
KLA1 180841Z 11010KT 16/09 A2987 RMK A01 T01590086  RH  062%=      5-min Rain = 0
KLA1 180842Z 11010KT 16/09 A2987 RMK A01 T01590086  RH  062%=      5-min Rain = 0
KLA1 180843Z 11010KT 16/09 A2987 RMK A01 T01600086  RH  062%=      5-min Rain = 0
KLA1 180844Z 11009KT 16/09 A2987 RMK A01 T01600086  RH  062%=      5-min Rain = 0
KLA1 180845Z 11009KT 16/09 A2987 RMK A01 T01600086  RH  062%=      5-min Rain = 0
KLA1 180846Z 11008KT 16/09 A2987 RMK A01 T01600086  RH  062%=      5-min Rain = 0
KLA1 180847Z 11010KT 16/09 A2987 RMK A01 T01600087  RH  062%=      5-min Rain = 0
KLA1 180848Z 12008KT 16/09 A2987 RMK A01 T01590086  RH  062%=      5-min Rain = 0
KLA1 180849Z 13007KT 16/09 A2987 RMK A01 T01590086  RH  062%=      5-min Rain = 0
KLA1 180850Z 13007KT 16/09 A2988 RMK A01 T01580086  RH  062%=      5-min Rain = 0
KLA1 180851Z 14007KT 16/09 A2988 RMK A01 T01580086  RH  062%=      5-min Rain = 0
KLA1 180852Z 14008KT 16/09 A2988 RMK A01 T01570086  RH  063%=      5-min Rain = 0
KLA1 180853Z 13008KT 16/09 A2988 RMK A01 T01570086  RH  063%=      5-min Rain = 0
KLA1 180854Z 12009KT 16/09 A2987 RMK A01 T01560086  RH  063%=      5-min Rain = 0
KLA1 180855Z 13008KT 16/09 A2987 RMK A01 T01560086  RH  063%=      5-min Rain = 0
KLA1 180856Z 13008KT 16/09 A2987 RMK A01 T01560086  RH  063%=      5-min Rain = 0
KLA1 180857Z 13009KT 16/09 A2987 RMK A01 T01550086  RH  063%=      5-min Rain = 0
KLA1 180858Z 13009KT 16/09 A2987 RMK A01 T01550086  RH  063%=      5-min Rain = 0
KLA1 180859Z 13008KT 16/09 A2987 RMK A01 T01550086  RH  063%=      5-min Rain = 0
KLA1 180900Z 13009KT 16/09 A2987 RMK A01 T01550086  RH  063%=      5-min Rain = 0
KLA1 180901Z 13008KT 15/09 A2987 RMK A01 T01540086  RH  064%=      5-min Rain = 0
KLA1 180902Z 13007KT 15/09 A2987 RMK A01 T01540086  RH  064%=      5-min Rain = 0
KLA1 180903Z 13007KT 15/09 A2988 RMK A01 T01530085  RH  064%=      5-min Rain = 0
KLA1 180904Z 13007KT 15/09 A2988 RMK A01 T01520086  RH  064%=      5-min Rain = 0
KLA1 180905Z 14006KT 15/09 A2988 RMK A01 T01520086  RH  065%=      5-min Rain = 0
KLA1 180906Z 14006KT 15/09 A2988 RMK A01 T01510085  RH  065%=      5-min Rain = 0
KLA1 180907Z 14006KT 15/09 A2988 RMK A01 T01500085  RH  065%=      5-min Rain = 0
KLA1 180908Z 14006KT 15/09 A2988 RMK A01 T01490085  RH  065%=      5-min Rain = 0
KLA1 180909Z 14006KT 15/09 A2988 RMK A01 T01490085  RH  066%=      5-min Rain = 0
KLA1 180910Z 13006KT 15/09 A2988 RMK A01 T01480085  RH  066%=      5-min Rain = 0
KLA1 180911Z 13006KT 15/09 A2988 RMK A01 T01470085  RH  066%=      5-min Rain = 0
KLA1 180912Z 13006KT 15/09 A2988 RMK A01 T01460085  RH  067%=      5-min Rain = 0
KLA1 180913Z 12006KT 15/08 A2988 RMK A01 T01450084  RH  067%=      5-min Rain = 0
KLA1 180914Z 13006KT 15/09 A2988 RMK A01 T01450085  RH  067%=      5-min Rain = 0
KLA1 180915Z 13006KT 14/09 A2988 RMK A01 T01440085  RH  067%=      5-min Rain = 0
KLA1 180916Z 13006KT 14/09 A2988 RMK A01 T01440085  RH  068%=      5-min Rain = 0
KLA1 180917Z 12006KT 14/09 A2987 RMK A01 T01440085  RH  068%=      5-min Rain = 0
KLA1 180918Z 12005KT 14/09 A2987 RMK A01 T01440085  RH  068%=      5-min Rain = 0
KLA1 180919Z 12005KT 14/09 A2987 RMK A01 T01440085  RH  068%=      5-min Rain = 0
KLA1 180920Z 12006KT 14/09 A2987 RMK A01 T01440085  RH  068%=      5-min Rain = 0
KLA1 180921Z 12005KT 14/09 A2987 RMK A01 T01440085  RH  068%=      5-min Rain = 0
KLA1 180922Z 12005KT 14/09 A2987 RMK A01 T01440085  RH  068%=      5-min Rain = 0
KLA1 180923Z 12005KT 14/09 A2987 RMK A01 T01440085  RH  067%=      5-min Rain = 0
KLA1 180924Z 12006KT 15/09 A2987 RMK A01 T01450085  RH  067%=      5-min Rain = 0
KLA1 180925Z 13006KT 15/09 A2987 RMK A01 T01450085  RH  067%=      5-min Rain = 0
KLA1 180926Z 13005KT 15/09 A2987 RMK A01 T01460085  RH  067%=      5-min Rain = 0
KLA1 180927Z 14006KT 15/09 A2987 RMK A01 T01460085  RH  067%=      5-min Rain = 0
KLA1 180928Z 14006KT 15/09 A2987 RMK A01 T01460086  RH  067%=      5-min Rain = 0
KLA1 180929Z 12006KT 15/09 A2987 RMK A01 T01460085  RH  067%=      5-min Rain = 0
KLA1 180930Z 12007KT 15/09 A2987 RMK A01 T01460086  RH  067%=      5-min Rain = 0
KLA1 180931Z 12007KT 15/09 A2987 RMK A01 T01470086  RH  067%=      5-min Rain = 0
KLA1 180932Z 12007KT 15/09 A2987 RMK A01 T01480086  RH  067%=      5-min Rain = 0
KLA1 180933Z 12007KT 15/09 A2987 RMK A01 T01490086  RH  066%=      5-min Rain = 0
KLA1 180934Z 12006KT 15/09 A2987 RMK A01 T01490086  RH  066%=      5-min Rain = 0
KLA1 180935Z 12006KT 15/09 A2987 RMK A01 T01490086  RH  066%=      5-min Rain = 0
KLA1 180936Z 12006KT 15/09 A2987 RMK A01 T01490085  RH  066%=      5-min Rain = 0
KLA1 180937Z 12007KT 15/09 A2987 RMK A01 T01490086  RH  066%=      5-min Rain = 0
KLA1 180938Z 12006KT 15/09 A2987 RMK A01 T01490086  RH  066%=      5-min Rain = 0
KLA1 180939Z 12006KT 15/09 A2987 RMK A01 T01490086  RH  066%=      5-min Rain = 0
KLA1 180940Z 12006KT 15/09 A2987 RMK A01 T01490086  RH  066%=      5-min Rain = 0
KLA1 180941Z 12006KT 15/09 A2987 RMK A01 T01490086  RH  066%=      5-min Rain = 0
KLA1 180942Z 12006KT 15/09 A2987 RMK A01 T01490086  RH  066%=      5-min Rain = 0
KLA1 180943Z 12006KT 15/09 A2987 RMK A01 T01480086  RH  066%=      5-min Rain = 0
KLA1 180944Z 11006KT 15/09 A2987 RMK A01 T01480086  RH  066%=      5-min Rain = 0
KLA1 180945Z 11006KT 15/09 A2987 RMK A01 T01480086  RH  066%=      5-min Rain = 0
KLA1 180946Z 11006KT 15/09 A2987 RMK A01 T01480086  RH  067%=      5-min Rain = 0
KLA1 180947Z 11005KT 15/09 A2987 RMK A01 T01480086  RH  067%=      5-min Rain = 0
KLA1 180948Z 11005KT 15/09 A2987 RMK A01 T01480086  RH  067%=      5-min Rain = 0
KLA1 180949Z 11006KT 15/09 A2987 RMK A01 T01480087  RH  067%=      5-min Rain = 0
KLA1 180950Z 11006KT 15/09 A2987 RMK A01 T01480087  RH  067%=      5-min Rain = 0
KLA1 180951Z 11006KT 15/09 A2987 RMK A01 T01480086  RH  067%=      5-min Rain = 0
KLA1 180952Z 12007KT 15/09 A2987 RMK A01 T01480087  RH  067%=      5-min Rain = 0
KLA1 180953Z 12007KT 15/09 A2987 RMK A01 T01480087  RH  067%=      5-min Rain = 0
KLA1 180954Z 12006KT 15/09 A2987 RMK A01 T01480087  RH  067%=      5-min Rain = 0
KLA1 180955Z 12006KT 15/09 A2987 RMK A01 T01480087  RH  067%=      5-min Rain = 0
KLA1 180956Z 12005KT 15/09 A2987 RMK A01 T01480086  RH  067%=      5-min Rain = 0
KLA1 180957Z 12006KT 15/09 A2987 RMK A01 T01470087  RH  067%=      5-min Rain = 0
KLA1 180958Z 12005KT 15/09 A2987 RMK A01 T01470086  RH  067%=      5-min Rain = 0
KLA1 180959Z 11005KT 15/09 A2987 RMK A01 T01470087  RH  067%=      5-min Rain = 0
KLA1 181000Z 12005KT 15/09 A2987 RMK A01 T01470087  RH  067%=      5-min Rain = 0
KLA1 181001Z 12005KT 15/09 A2987 RMK A01 T01460087  RH  068%=      5-min Rain = 0
KLA1 181002Z 11005KT 15/09 A2987 RMK A01 T01460087  RH  068%=      5-min Rain = 0
KLA1 181003Z 12006KT 15/09 A2987 RMK A01 T01460087  RH  068%=      5-min Rain = 0
KLA1 181004Z 12005KT 15/09 A2987 RMK A01 T01460087  RH  068%=      5-min Rain = 0
KLA1 181005Z 11006KT 15/09 A2987 RMK A01 T01460087  RH  068%=      5-min Rain = 0
KLA1 181006Z 12006KT 15/09 A2987 RMK A01 T01460087  RH  068%=      5-min Rain = 0
KLA1 181007Z 12005KT 15/09 A2987 RMK A01 T01460087  RH  068%=      5-min Rain = 0
KLA1 181008Z 12005KT 15/09 A2987 RMK A01 T01460088  RH  068%=      5-min Rain = 0
KLA1 181009Z 12005KT 15/09 A2987 RMK A01 T01460088  RH  068%=      5-min Rain = 0
KLA1 181010Z 12004KT 15/09 A2987 RMK A01 T01460088  RH  068%=      5-min Rain = 0
KLA1 181011Z 12006KT 15/09 A2987 RMK A01 T01460088  RH  068%=      5-min Rain = 0
KLA1 181012Z 12006KT 15/09 A2987 RMK A01 T01450088  RH  068%=      5-min Rain = 0
KLA1 181013Z 12006KT 15/09 A2987 RMK A01 T01450088  RH  069%=      5-min Rain = 0
KLA1 181014Z 12006KT 15/09 A2987 RMK A01 T01450088  RH  069%=      5-min Rain = 0
KLA1 181015Z 11006KT 15/09 A2987 RMK A01 T01450088  RH  069%=      5-min Rain = 0
KLA1 181016Z 11006KT 14/09 A2987 RMK A01 T01440088  RH  069%=      5-min Rain = 0
KLA1 181017Z 12006KT 14/09 A2987 RMK A01 T01440088  RH  069%=      5-min Rain = 0
KLA1 181018Z 11006KT 14/09 A2987 RMK A01 T01440089  RH  069%=      5-min Rain = 0
KLA1 181019Z 11005KT 15/09 A2987 RMK A01 T01450089  RH  069%=      5-min Rain = 0
KLA1 181020Z 11006KT 15/09 A2987 RMK A01 T01450089  RH  069%=      5-min Rain = 0
KLA1 181021Z 11006KT 15/09 A2987 RMK A01 T01450089  RH  069%=      5-min Rain = 0
KLA1 181022Z 11007KT 15/09 A2987 RMK A01 T01450089  RH  069%=      5-min Rain = 0
KLA1 181023Z 11006KT 15/09 A2987 RMK A01 T01450089  RH  069%=      5-min Rain = 0
KLA1 181024Z 11006KT 15/09 A2987 RMK A01 T01450089  RH  069%=      5-min Rain = 0
KLA1 181025Z 11006KT 15/09 A2987 RMK A01 T01450090  RH  069%=      5-min Rain = 0
KLA1 181026Z 12006KT 15/09 A2987 RMK A01 T01450089  RH  069%=      5-min Rain = 0
KLA1 181027Z 12005KT 15/09 A2987 RMK A01 T01450090  RH  069%=      5-min Rain = 0
KLA1 181028Z 12006KT 14/09 A2987 RMK A01 T01440089  RH  070%=      5-min Rain = 0
KLA1 181029Z 12006KT 14/09 A2987 RMK A01 T01440090  RH  070%=      5-min Rain = 0
KLA1 181030Z 11005KT 15/09 A2987 RMK A01 T01450090  RH  070%=      5-min Rain = 0
KLA1 181031Z 11006KT 14/09 A2987 RMK A01 T01440090  RH  070%=      5-min Rain = 0
KLA1 181032Z 11006KT 14/09 A2987 RMK A01 T01440090  RH  070%=      5-min Rain = 0
KLA1 181033Z 11006KT 14/09 A2987 RMK A01 T01440090  RH  070%=      5-min Rain = 0
KLA1 181034Z 11006KT 14/09 A2987 RMK A01 T01440090  RH  070%=      5-min Rain = 0
KLA1 181035Z 11005KT 14/09 A2987 RMK A01 T01440090  RH  070%=      5-min Rain = 0
KLA1 181036Z 11005KT 15/09 A2987 RMK A01 T01450090  RH  070%=      5-min Rain = 0
KLA1 181037Z 12005KT 14/09 A2987 RMK A01 T01440090  RH  070%=      5-min Rain = 0
KLA1 181038Z 12004KT 14/09 A2987 RMK A01 T01440090  RH  070%=      5-min Rain = 0
KLA1 181039Z 11005KT 14/09 A2987 RMK A01 T01440090  RH  070%=      5-min Rain = 0
KLA1 181040Z 12005KT 14/09 A2987 RMK A01 T01440091  RH  070%=      5-min Rain = 0
KLA1 181041Z 12005KT 14/09 A2987 RMK A01 T01440091  RH  070%=      5-min Rain = 0
KLA1 181042Z 12005KT 14/09 A2987 RMK A01 T01430090  RH  070%=      5-min Rain = 0
KLA1 181043Z 12005KT 14/09 A2987 RMK A01 T01440091  RH  070%=      5-min Rain = 0
KLA1 181044Z 12005KT 14/09 A2987 RMK A01 T01430090  RH  070%=      5-min Rain = 0
KLA1 181045Z 12005KT 14/09 A2987 RMK A01 T01440090  RH  070%=      5-min Rain = 0
KLA1 181046Z 12005KT 14/09 A2987 RMK A01 T01430090  RH  071%=      5-min Rain = 0
KLA1 181047Z 12005KT 14/09 A2987 RMK A01 T01430090  RH  071%=      5-min Rain = 0
KLA1 181048Z 12004KT 14/09 A2987 RMK A01 T01430090  RH  071%=      5-min Rain = 0
KLA1 181049Z 12004KT 14/09 A2987 RMK A01 T01420090  RH  071%=      5-min Rain = 0
KLA1 181050Z 12005KT 14/09 A2987 RMK A01 T01420090  RH  071%=      5-min Rain = 0
KLA1 181051Z 12005KT 14/09 A2987 RMK A01 T01410090  RH  071%=      5-min Rain = 0
KLA1 181052Z 12005KT 14/09 A2987 RMK A01 T01410090  RH  071%=      5-min Rain = 0
KLA1 181053Z 12006KT 14/09 A2987 RMK A01 T01400090  RH  071%=      5-min Rain = 0
KLA1 181054Z 12005KT 14/09 A2987 RMK A01 T01410090  RH  072%=      5-min Rain = 0
KLA1 181055Z 12005KT 14/09 A2987 RMK A01 T01400090  RH  072%=      5-min Rain = 0
KLA1 181056Z 12005KT 14/09 A2987 RMK A01 T01400090  RH  072%=      5-min Rain = 0
KLA1 181057Z 12005KT 14/09 A2987 RMK A01 T01400090  RH  072%=      5-min Rain = 0
KLA1 181058Z 11005KT 14/09 A2987 RMK A01 T01400090  RH  072%=      5-min Rain = 0
KLA1 181059Z 11005KT 14/09 A2987 RMK A01 T01390090  RH  072%=      5-min Rain = 0
KLA1 181100Z 11005KT 14/09 A2987 RMK A01 T01390090  RH  072%=      5-min Rain = 0
KLA1 181101Z 11005KT 14/09 A2987 RMK A01 T01390090  RH  072%=      5-min Rain = 0
KLA1 181102Z 11005KT 14/09 A2987 RMK A01 T01390090  RH  072%=      5-min Rain = 0
KLA1 181103Z 11005KT 14/09 A2986 RMK A01 T01400090  RH  072%=      5-min Rain = 0
KLA1 181104Z 12006KT 14/09 A2986 RMK A01 T01400090  RH  072%=      5-min Rain = 0
KLA1 181105Z 11006KT 14/09 A2986 RMK A01 T01400090  RH  072%=      5-min Rain = 0
KLA1 181106Z 11007KT 14/09 A2986 RMK A01 T01400090  RH  072%=      5-min Rain = 0
KLA1 181107Z 11007KT 14/09 A2986 RMK A01 T01410090  RH  072%=      5-min Rain = 0
KLA1 181108Z 11006KT 14/09 A2986 RMK A01 T01420091  RH  071%=      5-min Rain = 0
KLA1 181109Z 11008KT 14/09 A2986 RMK A01 T01420091  RH  071%=      5-min Rain = 0
KLA1 181110Z 11007KT 14/09 A2986 RMK A01 T01420090  RH  071%=      5-min Rain = 0
KLA1 181111Z 11006KT 14/09 A2986 RMK A01 T01430091  RH  071%=      5-min Rain = 0
KLA1 181112Z 11005KT 14/09 A2986 RMK A01 T01430091  RH  071%=      5-min Rain = 0
KLA1 181113Z 11006KT 14/09 A2987 RMK A01 T01420091  RH  071%=      5-min Rain = 0
KLA1 181114Z 11006KT 14/09 A2986 RMK A01 T01430091  RH  071%=      5-min Rain = 0
KLA1 181115Z 11006KT 14/09 A2986 RMK A01 T01430091  RH  071%=      5-min Rain = 0
KLA1 181116Z 11007KT 14/09 A2986 RMK A01 T01420091  RH  071%=      5-min Rain = 0
KLA1 181117Z 11007KT 14/09 A2986 RMK A01 T01420091  RH  071%=      5-min Rain = 0
KLA1 181118Z 11007KT 14/09 A2986 RMK A01 T01430091  RH  071%=      5-min Rain = 0
KLA1 181119Z 11006KT 14/09 A2986 RMK A01 T01430091  RH  071%=      5-min Rain = 0
KLA1 181120Z 11007KT 14/09 A2986 RMK A01 T01430091  RH  071%=      5-min Rain = 0
KLA1 181121Z 11007KT 14/09 A2986 RMK A01 T01430091  RH  071%=      5-min Rain = 0
KLA1 181122Z 11006KT 14/09 A2986 RMK A01 T01430091  RH  071%=      5-min Rain = 0
KLA1 181123Z 11006KT 14/09 A2986 RMK A01 T01430091  RH  071%=      5-min Rain = 0
KLA1 181124Z 12007KT 14/09 A2986 RMK A01 T01430091  RH  071%=      5-min Rain = 0
KLA1 181125Z 12007KT 14/09 A2986 RMK A01 T01430091  RH  071%=      5-min Rain = 0
KLA1 181126Z 12006KT 14/09 A2986 RMK A01 T01420091  RH  071%=      5-min Rain = 0
KLA1 181127Z 12007KT 14/09 A2986 RMK A01 T01420091  RH  071%=      5-min Rain = 0
KLA1 181128Z 12006KT 14/09 A2986 RMK A01 T01420091  RH  071%=      5-min Rain = 0
KLA1 181129Z 13006KT 14/09 A2986 RMK A01 T01420091  RH  071%=      5-min Rain = 0
KLA1 181130Z 12005KT 14/09 A2986 RMK A01 T01420091  RH  071%=      5-min Rain = 0
KLA1 181131Z 12006KT 14/09 A2986 RMK A01 T01420091  RH  071%=      5-min Rain = 0
KLA1 181132Z 13005KT 14/09 A2986 RMK A01 T01410091  RH  071%=      5-min Rain = 0
KLA1 181133Z 12004KT 14/09 A2987 RMK A01 T01420091  RH  071%=      5-min Rain = 0
KLA1 181134Z 13006KT 14/09 A2987 RMK A01 T01410091  RH  072%=      5-min Rain = 0
KLA1 181135Z 13005KT 14/09 A2987 RMK A01 T01410091  RH  072%=      5-min Rain = 0
KLA1 181136Z 13006KT 14/09 A2986 RMK A01 T01400091  RH  072%=      5-min Rain = 0
KLA1 181137Z 12007KT 14/09 A2986 RMK A01 T01400091  RH  072%=      5-min Rain = 0
KLA1 181138Z 12007KT 14/09 A2986 RMK A01 T01400091  RH  072%=      5-min Rain = 0
KLA1 181139Z 13006KT 14/09 A2986 RMK A01 T01400091  RH  072%=      5-min Rain = 0
KLA1 181140Z 12006KT 14/09 A2986 RMK A01 T01390090  RH  072%=      5-min Rain = 0
KLA1 181141Z 13005KT 14/09 A2986 RMK A01 T01390090  RH  072%=      5-min Rain = 0
KLA1 181142Z 13006KT 14/09 A2986 RMK A01 T01390091  RH  073%=      5-min Rain = 0
KLA1 181143Z 13006KT 14/09 A2986 RMK A01 T01380091  RH  073%=      5-min Rain = 0
KLA1 181144Z 12005KT 14/09 A2986 RMK A01 T01380090  RH  073%=      5-min Rain = 0
KLA1 181145Z 12006KT 14/09 A2986 RMK A01 T01370090  RH  073%=      5-min Rain = 0
KLA1 181146Z 12005KT 14/09 A2986 RMK A01 T01370090  RH  073%=      5-min Rain = 0
KLA1 181147Z 12006KT 14/09 A2986 RMK A01 T01370090  RH  073%=      5-min Rain = 0
KLA1 181148Z 12006KT 14/09 A2986 RMK A01 T01360090  RH  074%=      5-min Rain = 0
KLA1 181149Z 13005KT 14/09 A2986 RMK A01 T01360090  RH  074%=      5-min Rain = 0
KLA1 181150Z 13006KT 14/09 A2986 RMK A01 T01360091  RH  074%=      5-min Rain = 0
KLA1 181151Z 13006KT 14/09 A2987 RMK A01 T01350090  RH  074%=      5-min Rain = 0
KLA1 181152Z 13006KT 14/09 A2987 RMK A01 T01350091  RH  074%=      5-min Rain = 0
KLA1 181153Z 12006KT 14/09 A2986 RMK A01 T01350091  RH  075%=      5-min Rain = 0
KLA1 181154Z 12005KT 14/09 A2986 RMK A01 T01350091  RH  075%=      5-min Rain = 0
KLA1 181155Z 12006KT 14/09 A2986 RMK A01 T01350091  RH  075%=      5-min Rain = 0
KLA1 181156Z 12007KT 14/09 A2986 RMK A01 T01350091  RH  075%=      5-min Rain = 0
KLA1 181157Z 12006KT 14/09 A2986 RMK A01 T01350091  RH  075%=      5-min Rain = 0
KLA1 181158Z 12006KT 14/09 A2986 RMK A01 T01350091  RH  075%=      5-min Rain = 0
KLA1 181159Z 12007KT 14/09 A2986 RMK A01 T01350091  RH  075%=      5-min Rain = 0
KLA1 181200Z 11007KT 14/09 A2986 RMK A01 T01350091  RH  075%=      5-min Rain = 0
KLA1 181201Z 12008KT 14/09 A2986 RMK A01 T01350091  RH  075%=      5-min Rain = 0
KLA1 181202Z 12006KT 14/09 A2986 RMK A01 T01350091  RH  075%=      5-min Rain = 0
KLA1 181203Z 12006KT 14/09 A2986 RMK A01 T01350091  RH  075%=      5-min Rain = 0
KLA1 181204Z 12007KT 14/09 A2986 RMK A01 T01350091  RH  075%=      5-min Rain = 0
KLA1 181205Z 12007KT 14/09 A2986 RMK A01 T01350091  RH  075%=      5-min Rain = 0
KLA1 181206Z 12007KT 14/09 A2986 RMK A01 T01350092  RH  075%=      5-min Rain = 0
KLA1 181207Z 12007KT 14/09 A2986 RMK A01 T01350092  RH  075%=      5-min Rain = 0
KLA1 181208Z 12008KT 14/09 A2986 RMK A01 T01350092  RH  075%=      5-min Rain = 0
KLA1 181209Z 12007KT 14/09 A2986 RMK A01 T01360092  RH  075%=      5-min Rain = 0
KLA1 181210Z 12007KT 14/09 A2986 RMK A01 T01360092  RH  075%=      5-min Rain = 0
KLA1 181211Z 12008KT 14/09 A2986 RMK A01 T01360092  RH  075%=      5-min Rain = 0
KLA1 181212Z 12007KT 14/09 A2986 RMK A01 T01360093  RH  075%=      5-min Rain = 0
KLA1 181213Z 11007KT 14/09 A2986 RMK A01 T01360093  RH  075%=      5-min Rain = 0
KLA1 181214Z 12007KT 14/09 A2987 RMK A01 T01360094  RH  075%=      5-min Rain = 0
KLA1 181215Z 12006KT 14/09 A2987 RMK A01 T01360094  RH  075%=      5-min Rain = 0
KLA1 181216Z 12007KT 14/09 A2987 RMK A01 T01360094  RH  075%=      5-min Rain = 0
KLA1 181217Z 11007KT 14/09 A2986 RMK A01 T01360094  RH  076%=      5-min Rain = 0
KLA1 181218Z 12007KT 14/09 A2986 RMK A01 T01360094  RH  076%=      5-min Rain = 0
KLA1 181219Z 11008KT 14/10 A2986 RMK A01 T01360095  RH  076%=      5-min Rain = 0
KLA1 181220Z 11008KT 14/10 A2986 RMK A01 T01360095  RH  076%=      5-min Rain = 0
KLA1 181221Z 12008KT 14/10 A2986 RMK A01 T01360095  RH  076%=      5-min Rain = 0
KLA1 181222Z 11008KT 14/10 A2986 RMK A01 T01360095  RH  076%=      5-min Rain = 0
KLA1 181223Z 12007KT 14/10 A2986 RMK A01 T01360095  RH  077%=      5-min Rain = 0
KLA1 181224Z 12006KT 14/10 A2986 RMK A01 T01360095  RH  077%=      5-min Rain = 0
KLA1 181225Z 12007KT 14/10 A2986 RMK A01 T01360096  RH  077%=      5-min Rain = 0
KLA1 181226Z 12007KT 14/10 A2986 RMK A01 T01360096  RH  077%=      5-min Rain = 0
KLA1 181227Z 12007KT 14/10 A2987 RMK A01 T01360096  RH  077%=      5-min Rain = 0
KLA1 181228Z 12006KT 14/10 A2987 RMK A01 T01360096  RH  077%=      5-min Rain = 0
KLA1 181229Z 12008KT 14/10 A2987 RMK A01 T01360097  RH  077%=      5-min Rain = 0
KLA1 181230Z 12006KT 14/10 A2987 RMK A01 T01360097  RH  078%=      5-min Rain = 0
KLA1 181231Z 12007KT 14/10 A2987 RMK A01 T01360098  RH  077%=      5-min Rain = 0
KLA1 181232Z 12007KT 14/10 A2987 RMK A01 T01360097  RH  077%=      5-min Rain = 0
KLA1 181233Z 11006KT 14/10 A2987 RMK A01 T01360097  RH  077%=      5-min Rain = 0
KLA1 181234Z 11006KT 14/10 A2987 RMK A01 T01360098  RH  078%=      5-min Rain = 0
KLA1 181235Z 11006KT 14/10 A2987 RMK A01 T01360098  RH  078%=      5-min Rain = 0
KLA1 181236Z 11005KT 14/10 A2987 RMK A01 T01360098  RH  078%=      5-min Rain = 0
KLA1 181237Z 12005KT 14/10 A2987 RMK A01 T01360098  RH  078%=      5-min Rain = 0
KLA1 181238Z 12006KT 14/10 A2987 RMK A01 T01360098  RH  078%=      5-min Rain = 0
KLA1 181239Z 12006KT 14/10 A2987 RMK A01 T01360099  RH  078%=      5-min Rain = 0
KLA1 181240Z 12006KT 14/10 A2987 RMK A01 T01360098  RH  078%=      5-min Rain = 0
KLA1 181241Z 11007KT 14/10 A2987 RMK A01 T01360099  RH  078%=      5-min Rain = 0
KLA1 181242Z 11007KT 14/10 A2987 RMK A01 T01360099  RH  078%=      5-min Rain = 0
KLA1 181243Z 12006KT 14/10 A2987 RMK A01 T01360099  RH  078%=      5-min Rain = 0
KLA1 181244Z 12006KT 14/10 A2987 RMK A01 T01360099  RH  078%=      5-min Rain = 0
KLA1 181245Z 12005KT 14/10 A2987 RMK A01 T01360099  RH  078%=      5-min Rain = 0
KLA1 181246Z 13006KT 14/10 A2987 RMK A01 T01360099  RH  078%=      5-min Rain = 0
KLA1 181247Z 12006KT 14/10 A2987 RMK A01 T01360099  RH  078%=      5-min Rain = 0
KLA1 181248Z 12007KT 14/10 A2987 RMK A01 T01360099  RH  079%=      5-min Rain = 0
KLA1 181249Z 12008KT 14/10 A2986 RMK A01 T01360100  RH  079%=      5-min Rain = 0
KLA1 181250Z 12007KT 14/10 A2986 RMK A01 T01360100  RH  079%=      5-min Rain = 0
KLA1 181251Z 12007KT 14/10 A2986 RMK A01 T01360100  RH  079%=      5-min Rain = 0
KLA1 181252Z 12007KT 14/10 A2986 RMK A01 T01360101  RH  079%=      5-min Rain = 0
KLA1 181253Z 11006KT 14/10 A2986 RMK A01 T01370101  RH  079%=      5-min Rain = 0
KLA1 181254Z 12007KT 14/10 A2986 RMK A01 T01370101  RH  079%=      5-min Rain = 0
KLA1 181255Z 12006KT 14/10 A2986 RMK A01 T01370101  RH  079%=      5-min Rain = 0
KLA1 181256Z 12007KT 14/10 A2986 RMK A01 T01370101  RH  079%=      5-min Rain = 0
KLA1 181257Z 11007KT 14/10 A2986 RMK A01 T01380101  RH  079%=      5-min Rain = 0
KLA1 181258Z 12006KT 14/10 A2987 RMK A01 T01380102  RH  079%=      5-min Rain = 0
KLA1 181259Z 12007KT 14/10 A2987 RMK A01 T01380102  RH  079%=      5-min Rain = 0
KLA1 181300Z 12007KT 14/10 A2987 RMK A01 T01370102  RH  079%=      5-min Rain = 0
KLA1 181301Z 12006KT 14/10 A2987 RMK A01 T01380102  RH  079%=      5-min Rain = 0
KLA1 181302Z 12006KT 14/10 A2987 RMK A01 T01380102  RH  079%=      5-min Rain = 0
KLA1 181303Z 11006KT 14/10 A2987 RMK A01 T01370102  RH  079%=      5-min Rain = 0
KLA1 181304Z 12007KT 14/10 A2987 RMK A01 T01370102  RH  079%=      5-min Rain = 0
KLA1 181305Z 12007KT 14/10 A2986 RMK A01 T01380103  RH  079%=      5-min Rain = 0
KLA1 181306Z 12006KT 14/10 A2986 RMK A01 T01380103  RH  079%=      5-min Rain = 0
KLA1 181307Z 11006KT 14/10 A2986 RMK A01 T01370103  RH  079%=      5-min Rain = 0
KLA1 181308Z 12006KT 14/10 A2986 RMK A01 T01380103  RH  079%=      5-min Rain = 0
KLA1 181309Z 11005KT 14/10 A2986 RMK A01 T01380103  RH  080%=      5-min Rain = 0
KLA1 181310Z 11006KT 14/10 A2987 RMK A01 T01380104  RH  080%=      5-min Rain = 0
KLA1 181311Z 12006KT 14/10 A2987 RMK A01 T01390104  RH  080%=      5-min Rain = 0
KLA1 181312Z 11005KT 14/10 A2987 RMK A01 T01390104  RH  079%=      5-min Rain = 0
KLA1 181313Z 12006KT 14/10 A2987 RMK A01 T01390104  RH  079%=      5-min Rain = 0
KLA1 181314Z 10005KT 14/10 A2987 RMK A01 T01390104  RH  079%=      5-min Rain = 0
KLA1 181315Z 10006KT 14/10 A2987 RMK A01 T01390104  RH  079%=      5-min Rain = 0
KLA1 181316Z 11007KT 14/10 A2987 RMK A01 T01390104  RH  079%=      5-min Rain = 0
KLA1 181317Z 10007KT 14/11 A2987 RMK A01 T01400105  RH  079%=      5-min Rain = 0
KLA1 181318Z 10007KT 14/11 A2987 RMK A01 T01410105  RH  079%=      5-min Rain = 0
KLA1 181319Z 11008KT 14/11 A2987 RMK A01 T01420106  RH  079%=      5-min Rain = 0
KLA1 181320Z 11007KT 14/11 A2987 RMK A01 T01420106  RH  079%=      5-min Rain = 0
KLA1 181321Z 12008KT 14/11 A2987 RMK A01 T01430106  RH  079%=      5-min Rain = 0
KLA1 181322Z 11008KT 14/11 A2987 RMK A01 T01430106  RH  078%=      5-min Rain = 0
KLA1 181323Z 11007KT 14/11 A2986 RMK A01 T01430106  RH  078%=      5-min Rain = 0
KLA1 181324Z 11008KT 14/11 A2986 RMK A01 T01440106  RH  078%=      5-min Rain = 0
KLA1 181325Z 12008KT 14/11 A2987 RMK A01 T01430106  RH  078%=      5-min Rain = 0
KLA1 181326Z 12006KT 14/11 A2987 RMK A01 T01430106  RH  078%=      5-min Rain = 0
KLA1 181327Z 12006KT 14/11 A2987 RMK A01 T01430106  RH  078%=      5-min Rain = 0
KLA1 181328Z 12006KT 14/11 A2987 RMK A01 T01440107  RH  078%=      5-min Rain = 0
KLA1 181329Z 11007KT 14/11 A2987 RMK A01 T01440107  RH  078%=      5-min Rain = 0
KLA1 181330Z 11008KT 15/11 A2986 RMK A01 T01450107  RH  078%=      5-min Rain = 0
KLA1 181331Z 11009KT 14/11 A2986 RMK A01 T01440107  RH  078%=      5-min Rain = 0
KLA1 181332Z 11009KT 14/11 A2986 RMK A01 T01440107  RH  078%=      5-min Rain = 0
KLA1 181333Z 11009KT 15/11 A2986 RMK A01 T01450108  RH  078%=      5-min Rain = 0
KLA1 181334Z 11008KT 15/11 A2986 RMK A01 T01460108  RH  078%=      5-min Rain = 0
KLA1 181335Z 11008KT 15/11 A2986 RMK A01 T01470109  RH  078%=      5-min Rain = 0
KLA1 181336Z 11008KT 15/11 A2986 RMK A01 T01470108  RH  078%=      5-min Rain = 0
KLA1 181337Z 11006KT 15/11 A2986 RMK A01 T01470108  RH  077%=      5-min Rain = 0
KLA1 181338Z 11006KT 15/11 A2987 RMK A01 T01480109  RH  077%=      5-min Rain = 0
KLA1 181339Z 11005KT 15/11 A2987 RMK A01 T01490109  RH  077%=      5-min Rain = 0
KLA1 181340Z 11007KT 15/11 A2987 RMK A01 T01490109  RH  077%=      5-min Rain = 0
KLA1 181341Z 11008KT 15/11 A2987 RMK A01 T01490109  RH  077%=      5-min Rain = 0
KLA1 181342Z 11007KT 15/11 A2986 RMK A01 T01490109  RH  077%=      5-min Rain = 0
KLA1 181343Z 11007KT 15/11 A2986 RMK A01 T01500109  RH  077%=      5-min Rain = 0
KLA1 181344Z 11007KT 15/11 A2986 RMK A01 T01500110  RH  077%=      5-min Rain = 0
KLA1 181345Z 11007KT 15/11 A2986 RMK A01 T01500110  RH  077%=      5-min Rain = 0
KLA1 181346Z 12007KT 15/11 A2987 RMK A01 T01510110  RH  076%=      5-min Rain = 0
KLA1 181347Z 11007KT 15/11 A2987 RMK A01 T01510110  RH  076%=      5-min Rain = 0
KLA1 181348Z 11010KT 15/11 A2986 RMK A01 T01510110  RH  076%=      5-min Rain = 0
KLA1 181349Z 11008KT 15/11 A2986 RMK A01 T01520110  RH  076%=      5-min Rain = 0
KLA1 181350Z 10008KT 15/11 A2986 RMK A01 T01520111  RH  076%=      5-min Rain = 0
KLA1 181351Z 11008KT 15/11 A2986 RMK A01 T01520110  RH  076%=      5-min Rain = 0
KLA1 181352Z 11006KT 15/11 A2986 RMK A01 T01530111  RH  076%=      5-min Rain = 0
KLA1 181353Z 11008KT 15/11 A2986 RMK A01 T01530111  RH  076%=      5-min Rain = 0
KLA1 181354Z 10008KT 15/11 A2986 RMK A01 T01530111  RH  076%=      5-min Rain = 0
KLA1 181355Z 10006KT 15/11 A2986 RMK A01 T01530111  RH  076%=      5-min Rain = 0
KLA1 181356Z 11007KT 15/11 A2986 RMK A01 T01540112  RH  076%=      5-min Rain = 0
KLA1 181357Z 12008KT 15/11 A2986 RMK A01 T01540112  RH  076%=      5-min Rain = 0
KLA1 181358Z 12007KT 15/11 A2986 RMK A01 T01540112  RH  076%=      5-min Rain = 0
KLA1 181359Z 12010KT 16/11 A2986 RMK A01 T01550112  RH  076%=      5-min Rain = 0
KLA1 181400Z 12009KT 16/11 A2986 RMK A01 T01550113  RH  076%=      5-min Rain = 0
KLA1 181401Z 12009KT 16/11 A2986 RMK A01 T01550113  RH  076%=      5-min Rain = 0
KLA1 181402Z 12010KT 16/11 A2986 RMK A01 T01550113  RH  076%=      5-min Rain = 0
KLA1 181403Z 11009KT 16/11 A2986 RMK A01 T01550113  RH  076%=      5-min Rain = 0
KLA1 181404Z 12010KT 16/11 A2986 RMK A01 T01560113  RH  076%=      5-min Rain = 0
KLA1 181405Z 12011KT 16/11 A2986 RMK A01 T01560113  RH  076%=      5-min Rain = 0
KLA1 181406Z 12011KT 16/11 A2986 RMK A01 T01560113  RH  075%=      5-min Rain = 0
KLA1 181407Z 12011KT 16/11 A2986 RMK A01 T01560113  RH  076%=      5-min Rain = 0
KLA1 181408Z 13009KT 16/11 A2986 RMK A01 T01560113  RH  075%=      5-min Rain = 0
KLA1 181409Z 13008KT 16/11 A2986 RMK A01 T01570114  RH  075%=      5-min Rain = 0
KLA1 181410Z 12008KT 16/12 A2986 RMK A01 T01590115  RH  075%=      5-min Rain = 0
KLA1 181411Z 13009KT 16/11 A2986 RMK A01 T01590114  RH  075%=      5-min Rain = 0
KLA1 181412Z 12008G13KT 16/12 A2986 RMK A01 T01600115  RH  074%=      5-min Rain = 0
KLA1 181413Z 12010KT 16/11 A2986 RMK A01 T01610114  RH  074%=      5-min Rain = 0
KLA1 181414Z 12010KT 16/11 A2986 RMK A01 T01610114  RH  074%=      5-min Rain = 0
KLA1 181415Z 13011KT 16/11 A2986 RMK A01 T01610114  RH  074%=      5-min Rain = 0
KLA1 181416Z 13009KT 16/11 A2986 RMK A01 T01620114  RH  073%=      5-min Rain = 0
KLA1 181417Z 13009KT 16/12 A2986 RMK A01 T01620115  RH  073%=      5-min Rain = 0
KLA1 181418Z 13009KT 16/12 A2986 RMK A01 T01630115  RH  073%=      5-min Rain = 0
KLA1 181419Z 12010KT 16/12 A2986 RMK A01 T01630115  RH  073%=      5-min Rain = 0
KLA1 181420Z 12008KT 16/12 A2986 RMK A01 T01630115  RH  073%=      5-min Rain = 0
KLA1 181421Z 13008KT 16/12 A2986 RMK A01 T01640115  RH  073%=      5-min Rain = 0
KLA1 181422Z 13010KT 17/12 A2986 RMK A01 T01650116  RH  073%=      5-min Rain = 0
KLA1 181423Z 13009KT 17/12 A2986 RMK A01 T01660115  RH  072%=      5-min Rain = 0
KLA1 181424Z 13009KT 17/12 A2986 RMK A01 T01660116  RH  072%=      5-min Rain = 0
KLA1 181425Z 13009KT 17/12 A2986 RMK A01 T01660115  RH  072%=      5-min Rain = 0
KLA1 181426Z 13009KT 17/12 A2986 RMK A01 T01670116  RH  072%=      5-min Rain = 0
KLA1 181427Z 13010KT 17/12 A2986 RMK A01 T01670115  RH  071%=      5-min Rain = 0
KLA1 181428Z 14010KT 17/12 A2986 RMK A01 T01680115  RH  071%=      5-min Rain = 0
KLA1 181429Z 13010KT 17/12 A2986 RMK A01 T01680115  RH  071%=      5-min Rain = 0
KLA1 181430Z 13011KT 17/12 A2986 RMK A01 T01690116  RH  071%=      5-min Rain = 0
KLA1 181431Z 13009KT 17/12 A2986 RMK A01 T01690116  RH  071%=      5-min Rain = 0
KLA1 181432Z 12010KT 17/12 A2986 RMK A01 T01700116  RH  070%=      5-min Rain = 0
KLA1 181433Z 13009KT 17/12 A2986 RMK A01 T01700116  RH  070%=      5-min Rain = 0
KLA1 181434Z 13010KT 17/12 A2986 RMK A01 T01700116  RH  070%=      5-min Rain = 0
KLA1 181435Z 13011KT 17/12 A2986 RMK A01 T01700116  RH  070%=      5-min Rain = 0
KLA1 181436Z 14009KT 17/12 A2986 RMK A01 T01700116  RH  070%=      5-min Rain = 0
KLA1 181437Z 14009KT 17/12 A2986 RMK A01 T01710117  RH  070%=      5-min Rain = 0
KLA1 181438Z 13008KT 17/12 A2986 RMK A01 T01720117  RH  070%=      5-min Rain = 0
KLA1 181439Z 13010KT 17/12 A2986 RMK A01 T01730117  RH  069%=      5-min Rain = 0
KLA1 181440Z 14010KT 17/12 A2986 RMK A01 T01730117  RH  069%=      5-min Rain = 0
KLA1 181441Z 13006KT 17/12 A2986 RMK A01 T01740117  RH  069%=      5-min Rain = 0
KLA1 181442Z 14008KT 18/12 A2986 RMK A01 T01760118  RH  069%=      5-min Rain = 0
KLA1 181443Z 13009KT 18/12 A2986 RMK A01 T01780118  RH  068%=      5-min Rain = 0
KLA1 181444Z 14008KT 18/12 A2986 RMK A01 T01780118  RH  068%=      5-min Rain = 0
KLA1 181445Z 15009KT 18/12 A2986 RMK A01 T01780118  RH  068%=      5-min Rain = 0
KLA1 181446Z 14008KT 18/12 A2986 RMK A01 T01780118  RH  068%=      5-min Rain = 0
KLA1 181447Z 14007KT 18/12 A2986 RMK A01 T01780118  RH  068%=      5-min Rain = 0
KLA1 181448Z 13008KT 18/12 A2986 RMK A01 T01790118  RH  068%=      5-min Rain = 0
KLA1 181449Z 14009KT 18/12 A2986 RMK A01 T01790118  RH  067%=      5-min Rain = 0
KLA1 181450Z 14008KT 18/12 A2986 RMK A01 T01790118  RH  067%=      5-min Rain = 0
KLA1 181451Z 14011KT 18/12 A2986 RMK A01 T01800118  RH  067%=      5-min Rain = 0
KLA1 181452Z 14011KT 18/12 A2986 RMK A01 T01800118  RH  067%=      5-min Rain = 0
KLA1 181453Z 14008KT 18/12 A2986 RMK A01 T01800118  RH  067%=      5-min Rain = 0
KLA1 181454Z 13008KT 18/12 A2986 RMK A01 T01820119  RH  067%=      5-min Rain = 0
KLA1 181455Z 14007KT 18/12 A2986 RMK A01 T01840119  RH  066%=      5-min Rain = 0
KLA1 181456Z 14007KT 18/12 A2986 RMK A01 T01840118  RH  065%=      5-min Rain = 0
KLA1 181457Z 14007KT 18/12 A2986 RMK A01 T01840119  RH  066%=      5-min Rain = 0
KLA1 181458Z 14010KT 18/12 A2986 RMK A01 T01840119  RH  066%=      5-min Rain = 0
KLA1 181459Z 14009KT 18/12 A2986 RMK A01 T01840118  RH  066%=      5-min Rain = 0
KLA1 181500Z 13009KT 18/12 A2986 RMK A01 T01840119  RH  066%=      5-min Rain = 0
KLA1 181501Z 14010KT 19/12 A2986 RMK A01 T01850119  RH  065%=      5-min Rain = 0
KLA1 181502Z 14009KT 19/12 A2986 RMK A01 T01860119  RH  065%=      5-min Rain = 0
KLA1 181503Z 15010KT 19/12 A2986 RMK A01 T01870119  RH  065%=      5-min Rain = 0
KLA1 181504Z 13010KT 19/12 A2986 RMK A01 T01870118  RH  064%=      5-min Rain = 0
KLA1 181505Z 14010KT 19/12 A2986 RMK A01 T01860118  RH  065%=      5-min Rain = 0
KLA1 181506Z 14009KT 19/12 A2986 RMK A01 T01850119  RH  065%=      5-min Rain = 0
KLA1 181507Z 14009KT 19/12 A2986 RMK A01 T01850119  RH  065%=      5-min Rain = 0
KLA1 181508Z 15008KT 19/12 A2986 RMK A01 T01870119  RH  065%=      5-min Rain = 0
KLA1 181509Z 14009KT 19/12 A2986 RMK A01 T01870119  RH  064%=      5-min Rain = 0
KLA1 181510Z 13008KT 19/12 A2986 RMK A01 T01880119  RH  064%=      5-min Rain = 0
KLA1 181511Z 14009KT 19/12 A2986 RMK A01 T01870119  RH  065%=      5-min Rain = 0
KLA1 181512Z 14010KT 19/12 A2986 RMK A01 T01890119  RH  064%=      5-min Rain = 0
KLA1 181513Z 15007KT 19/12 A2986 RMK A01 T01890119  RH  064%=      5-min Rain = 0
KLA1 181514Z 14008KT 19/12 A2986 RMK A01 T01910120  RH  064%=      5-min Rain = 0
KLA1 181515Z 14009KT 19/12 A2986 RMK A01 T01920120  RH  063%=      5-min Rain = 0
KLA1 181516Z 14007KT 19/12 A2986 RMK A01 T01930120  RH  063%=      5-min Rain = 0
KLA1 181517Z 14008KT 19/12 A2986 RMK A01 T01940121  RH  063%=      5-min Rain = 0
KLA1 181518Z 14008KT 20/12 A2986 RMK A01 T01950121  RH  062%=      5-min Rain = 0
KLA1 181519Z 15010KT 20/12 A2986 RMK A01 T01950120  RH  062%=      5-min Rain = 0
KLA1 181520Z 15009KT 20/12 A2986 RMK A01 T01950120  RH  062%=      5-min Rain = 0
KLA1 181521Z 14010KT 20/12 A2986 RMK A01 T01960120  RH  062%=      5-min Rain = 0
KLA1 181522Z 15010KT 20/12 A2986 RMK A01 T01970121  RH  062%=      5-min Rain = 0
KLA1 181523Z 15008KT 20/12 A2986 RMK A01 T01980121  RH  061%=      5-min Rain = 0
KLA1 181524Z 15008KT 20/12 A2985 RMK A01 T01980121  RH  061%=      5-min Rain = 0
KLA1 181525Z 15009KT 20/12 A2985 RMK A01 T01990121  RH  061%=      5-min Rain = 0
KLA1 181526Z 14011KT 20/12 A2985 RMK A01 T02000121  RH  060%=      5-min Rain = 0
KLA1 181527Z 14011KT 20/12 A2985 RMK A01 T01990120  RH  060%=      5-min Rain = 0
KLA1 181528Z 14010KT 20/12 A2985 RMK A01 T01980120  RH  061%=      5-min Rain = 0
KLA1 181529Z 15011KT 20/12 A2985 RMK A01 T01970120  RH  061%=      5-min Rain = 0
KLA1 181530Z 15010KT 20/12 A2985 RMK A01 T01970120  RH  061%=      5-min Rain = 0
KLA1 181531Z 13010KT 20/12 A2985 RMK A01 T01980120  RH  061%=      5-min Rain = 0
KLA1 181532Z 13010KT 20/12 A2985 RMK A01 T01990121  RH  060%=      5-min Rain = 0
KLA1 181533Z 13010KT 20/12 A2985 RMK A01 T02000120  RH  060%=      5-min Rain = 0
KLA1 181534Z 13008KT 20/12 A2985 RMK A01 T02000121  RH  060%=      5-min Rain = 0
KLA1 181535Z 14008KT 20/12 A2985 RMK A01 T02000121  RH  060%=      5-min Rain = 0
KLA1 181536Z 15008KT 20/12 A2986 RMK A01 T02010121  RH  060%=      5-min Rain = 0
KLA1 181537Z 15009KT 20/12 A2986 RMK A01 T02020121  RH  060%=      5-min Rain = 0
KLA1 181538Z 15009KT 20/12 A2986 RMK A01 T02030121  RH  059%=      5-min Rain = 0
KLA1 181539Z 14007KT 20/12 A2986 RMK A01 T02030122  RH  060%=      5-min Rain = 0
KLA1 181540Z 14009KT 21/12 A2986 RMK A01 T02050122  RH  059%=      5-min Rain = 0
KLA1 181541Z 13007KT 21/12 A2986 RMK A01 T02060121  RH  058%=      5-min Rain = 0
KLA1 181542Z 15009KT 21/12 A2986 RMK A01 T02060122  RH  059%=      5-min Rain = 0
KLA1 181543Z 16009KT 21/12 A2986 RMK A01 T02070122  RH  058%=      5-min Rain = 0
KLA1 181544Z 16009KT 21/12 A2986 RMK A01 T02080122  RH  058%=      5-min Rain = 0
KLA1 181545Z 17008KT 21/12 A2986 RMK A01 T02080122  RH  058%=      5-min Rain = 0
KLA1 181546Z 14009KT 21/12 A2986 RMK A01 T02080122  RH  058%=      5-min Rain = 0
KLA1 181547Z 15008KT 21/12 A2986 RMK A01 T02070122  RH  058%=      5-min Rain = 0
KLA1 181548Z 14006KT 21/12 A2986 RMK A01 T02080123  RH  058%=      5-min Rain = 0
KLA1 181549Z 15008KT 21/12 A2986 RMK A01 T02110123  RH  057%=      5-min Rain = 0
KLA1 181550Z 18009KT 21/12 A2986 RMK A01 T02120122  RH  057%=      5-min Rain = 0
KLA1 181551Z 18009KT 21/12 A2986 RMK A01 T02110122  RH  057%=      5-min Rain = 0
KLA1 181552Z 18009KT 21/12 A2985 RMK A01 T02100123  RH  058%=      5-min Rain = 0
KLA1 181553Z 17008KT 21/12 A2985 RMK A01 T02090123  RH  058%=      5-min Rain = 0
KLA1 181554Z 16009KT 21/12 A2986 RMK A01 T02100122  RH  057%=      5-min Rain = 0
KLA1 181555Z 17008KT 21/12 A2986 RMK A01 T02100123  RH  057%=      5-min Rain = 0
KLA1 181556Z 15009KT 21/12 A2985 RMK A01 T02100123  RH  057%=      5-min Rain = 0
KLA1 181557Z 17010KT 21/12 A2985 RMK A01 T02110123  RH  057%=      5-min Rain = 0
KLA1 181558Z 17009KT 21/12 A2985 RMK A01 T02110123  RH  057%=      5-min Rain = 0
KLA1 181559Z 15008KT 21/12 A2985 RMK A01 T02110123  RH  057%=      5-min Rain = 0
KLA1 181600Z 15008KT 21/12 A2985 RMK A01 T02120122  RH  056%=      5-min Rain = 0
KLA1 181601Z 16010KT 21/12 A2985 RMK A01 T02110122  RH  057%=      5-min Rain = 0
KLA1 181602Z 16007KT 21/12 A2985 RMK A01 T02100122  RH  057%=      5-min Rain = 0
KLA1 181603Z 18008KT 21/12 A2985 RMK A01 T02100123  RH  057%=      5-min Rain = 0
KLA1 181604Z 16008KT 21/12 A2985 RMK A01 T02100123  RH  057%=      5-min Rain = 0
KLA1 181605Z 16007KT 21/12 A2985 RMK A01 T02120123  RH  057%=      5-min Rain = 0
KLA1 181606Z 16006KT 21/12 A2985 RMK A01 T02130123  RH  056%=      5-min Rain = 0
KLA1 181607Z 17007KT 21/12 A2985 RMK A01 T02140124  RH  056%=      5-min Rain = 0
KLA1 181608Z 14006KT 21/12 A2985 RMK A01 T02140123  RH  056%=      5-min Rain = 0
KLA1 181609Z 14008KT 22/12 A2985 RMK A01 T02150123  RH  056%=      5-min Rain = 0
KLA1 181610Z 15008KT 22/12 A2985 RMK A01 T02160123  RH  055%=      5-min Rain = 0
KLA1 181611Z 15009KT 22/12 A2985 RMK A01 T02150124  RH  056%=      5-min Rain = 0
KLA1 181612Z 14008KT 22/12 A2985 RMK A01 T02170124  RH  055%=      5-min Rain = 0
KLA1 181613Z 15006KT 22/12 A2985 RMK A01 T02170123  RH  055%=      5-min Rain = 0
KLA1 181614Z 15008KT 22/12 A2984 RMK A01 T02180124  RH  055%=      5-min Rain = 0
KLA1 181615Z 13010KT 22/12 A2984 RMK A01 T02190124  RH  055%=      5-min Rain = 0
KLA1 181616Z 15008KT 22/12 A2984 RMK A01 T02200124  RH  055%=      5-min Rain = 0
KLA1 181617Z 15008KT 22/12 A2984 RMK A01 T02210124  RH  054%=      5-min Rain = 0
KLA1 181618Z 14009KT 22/12 A2985 RMK A01 T02210124  RH  054%=      5-min Rain = 0
KLA1 181619Z 17009KT 22/12 A2985 RMK A01 T02200124  RH  054%=      5-min Rain = 0
KLA1 181620Z 16009KT 22/12 A2985 RMK A01 T02180123  RH  055%=      5-min Rain = 0
KLA1 181621Z 16007KT 22/12 A2985 RMK A01 T02160122  RH  055%=      5-min Rain = 0
KLA1 181622Z 13007KT 22/12 A2985 RMK A01 T02160124  RH  056%=      5-min Rain = 0
KLA1 181623Z 15010KT 22/12 A2985 RMK A01 T02190124  RH  055%=      5-min Rain = 0
KLA1 181624Z 13008KT 22/12 A2984 RMK A01 T02200124  RH  054%=      5-min Rain = 0
KLA1 181625Z 13010KT 22/12 A2984 RMK A01 T02210124  RH  054%=      5-min Rain = 0
KLA1 181626Z 15008KT 22/12 A2984 RMK A01 T02210123  RH  054%=      5-min Rain = 0
KLA1 181627Z 15011KT 22/12 A2984 RMK A01 T02220124  RH  054%=      5-min Rain = 0
KLA1 181628Z 14008KT 22/12 A2984 RMK A01 T02220124  RH  054%=      5-min Rain = 0
KLA1 181629Z 15008KT 22/13 A2984 RMK A01 T02220125  RH  054%=      5-min Rain = 0
KLA1 181630Z 16008KT 22/12 A2984 RMK A01 T02230124  RH  054%=      5-min Rain = 0
KLA1 181631Z 15008KT 22/13 A2984 RMK A01 T02240125  RH  053%=      5-min Rain = 0
KLA1 181632Z 14008KT 23/13 A2984 RMK A01 T02250125  RH  053%=      5-min Rain = 0
KLA1 181633Z 15007KT 23/13 A2984 RMK A01 T02260126  RH  053%=      5-min Rain = 0
KLA1 181634Z 17009KT 23/13 A2984 RMK A01 T02280125  RH  052%=      5-min Rain = 0
KLA1 181635Z 17007KT 23/13 A2984 RMK A01 T02280126  RH  053%=      5-min Rain = 0
KLA1 181636Z 17007KT 23/12 A2984 RMK A01 T02270124  RH  052%=      5-min Rain = 0
KLA1 181637Z 16008KT 23/13 A2984 RMK A01 T02260125  RH  053%=      5-min Rain = 0
KLA1 181638Z 15011KT 23/13 A2984 RMK A01 T02280126  RH  052%=      5-min Rain = 0
KLA1 181639Z 14009KT 23/13 A2984 RMK A01 T02290125  RH  052%=      5-min Rain = 0
KLA1 181640Z 16010KT 23/13 A2984 RMK A01 T02280125  RH  052%=      5-min Rain = 0
KLA1 181641Z 17010KT 23/13 A2984 RMK A01 T02270125  RH  052%=      5-min Rain = 0
KLA1 181642Z 16009KT 23/13 A2984 RMK A01 T02270126  RH  053%=      5-min Rain = 0
KLA1 181643Z 15011KT 23/13 A2984 RMK A01 T02270126  RH  053%=      5-min Rain = 0
KLA1 181644Z 14009KT 23/13 A2984 RMK A01 T02290125  RH  052%=      5-min Rain = 0
KLA1 181645Z 14011KT 23/13 A2984 RMK A01 T02290125  RH  052%=      5-min Rain = 0
KLA1 181646Z 15009KT 23/13 A2984 RMK A01 T02280126  RH  052%=      5-min Rain = 0
KLA1 181647Z 14010KT 23/13 A2984 RMK A01 T02310126  RH  052%=      5-min Rain = 0
KLA1 181648Z 14008G13KT 23/13 A2984 RMK A01 T02310125  RH  051%=      5-min Rain = 0
KLA1 181649Z 16010KT 23/13 A2984 RMK A01 T02340126  RH  051%=      5-min Rain = 0
KLA1 181650Z 16010KT 24/13 A2984 RMK A01 T02350126  RH  050%=      5-min Rain = 0
KLA1 181651Z 16006KT 23/13 A2984 RMK A01 T02330126  RH  051%=      5-min Rain = 0
KLA1 181652Z 17006KT 23/13 A2984 RMK A01 T02340127  RH  051%=      5-min Rain = 0
KLA1 181653Z 15010KT 24/13 A2984 RMK A01 T02350126  RH  050%=      5-min Rain = 0
KLA1 181654Z 14007KT 23/13 A2983 RMK A01 T02340126  RH  051%=      5-min Rain = 0
KLA1 181655Z 14009KT 23/13 A2983 RMK A01 T02340126  RH  051%=      5-min Rain = 0
KLA1 181656Z 14010KT 23/13 A2983 RMK A01 T02330126  RH  051%=      5-min Rain = 0
KLA1 181657Z 14007KT 23/13 A2983 RMK A01 T02330126  RH  051%=      5-min Rain = 0
KLA1 181658Z 15007KT 24/13 A2983 RMK A01 T02360126  RH  050%=      5-min Rain = 0
KLA1 181659Z 14011KT 24/13 A2983 RMK A01 T02360126  RH  050%=      5-min Rain = 0
KLA1 181700Z 14008KT 24/13 A2983 RMK A01 T02350126  RH  050%=      5-min Rain = 0
KLA1 181701Z 13009G14KT 24/13 A2983 RMK A01 T02350126  RH  051%=      5-min Rain = 0
KLA1 181702Z 16008KT 24/13 A2983 RMK A01 T02370127  RH  050%=      5-min Rain = 0
KLA1 181703Z 14010KT 24/13 A2983 RMK A01 T02390127  RH  049%=      5-min Rain = 0
KLA1 181704Z 15009KT 24/13 A2983 RMK A01 T02400127  RH  049%=      5-min Rain = 0
KLA1 181705Z 15008KT 24/13 A2983 RMK A01 T02390127  RH  049%=      5-min Rain = 0
KLA1 181706Z 14010KT 24/13 A2983 RMK A01 T02400126  RH  049%=      5-min Rain = 0
KLA1 181707Z 13009KT 24/13 A2983 RMK A01 T02380126  RH  050%=      5-min Rain = 0
KLA1 181708Z 13007KT 24/13 A2983 RMK A01 T02360126  RH  050%=      5-min Rain = 0
KLA1 181709Z 13006KT 23/13 A2983 RMK A01 T02340126  RH  051%=      5-min Rain = 0
KLA1 181710Z 14009KT 24/13 A2983 RMK A01 T02360128  RH  050%=      5-min Rain = 0
KLA1 181711Z 14011KT 24/13 A2983 RMK A01 T02400127  RH  049%=      5-min Rain = 0
KLA1 181712Z 14011KT 24/13 A2983 RMK A01 T02390126  RH  049%=      5-min Rain = 0
KLA1 181713Z 14010KT 24/13 A2983 RMK A01 T02370126  RH  050%=      5-min Rain = 0
KLA1 181714Z 15011KT 24/13 A2983 RMK A01 T02370126  RH  050%=      5-min Rain = 0
KLA1 181715Z 14008KT 24/13 A2983 RMK A01 T02370126  RH  050%=      5-min Rain = 0
KLA1 181716Z 15011KT 24/13 A2983 RMK A01 T02380127  RH  050%=      5-min Rain = 0
KLA1 181717Z 15010KT 24/13 A2983 RMK A01 T02380126  RH  049%=      5-min Rain = 0
KLA1 181718Z 14010KT 24/13 A2983 RMK A01 T02390127  RH  050%=      5-min Rain = 0
KLA1 181719Z 14010KT 24/13 A2982 RMK A01 T02400127  RH  049%=      5-min Rain = 0
KLA1 181720Z 14010KT 24/13 A2982 RMK A01 T02410128  RH  049%=      5-min Rain = 0
KLA1 181721Z 14008KT 24/13 A2982 RMK A01 T02420127  RH  049%=      5-min Rain = 0
KLA1 181722Z 15012KT 24/13 A2982 RMK A01 T02430128  RH  049%=      5-min Rain = 0
KLA1 181723Z 14011KT 24/13 A2982 RMK A01 T02430127  RH  048%=      5-min Rain = 0
KLA1 181724Z 15007KT 24/13 A2982 RMK A01 T02420126  RH  048%=      5-min Rain = 0
KLA1 181725Z 15009KT 24/13 A2982 RMK A01 T02410127  RH  049%=      5-min Rain = 0
KLA1 181726Z 15007KT 24/13 A2982 RMK A01 T02410126  RH  049%=      5-min Rain = 0
KLA1 181727Z 14009KT 24/13 A2982 RMK A01 T02410127  RH  049%=      5-min Rain = 0
KLA1 181728Z 16009KT 24/13 A2982 RMK A01 T02430126  RH  048%=      5-min Rain = 0
KLA1 181729Z 16010KT 24/13 A2982 RMK A01 T02430127  RH  048%=      5-min Rain = 0
KLA1 181730Z 16008KT 25/13 A2982 RMK A01 T02450127  RH  048%=      5-min Rain = 0
KLA1 181731Z 15011KT 25/13 A2982 RMK A01 T02450127  RH  048%=      5-min Rain = 0
KLA1 181732Z 16009KT 25/13 A2982 RMK A01 T02450126  RH  048%=      5-min Rain = 0
KLA1 181733Z 14008KT 25/13 A2981 RMK A01 T02450128  RH  048%=      5-min Rain = 0
KLA1 181734Z 14007KT 25/13 A2982 RMK A01 T02480128  RH  047%=      5-min Rain = 0
KLA1 181735Z 15008KT 25/13 A2981 RMK A01 T02470127  RH  047%=      5-min Rain = 0
KLA1 181736Z 14008KT 25/13 A2981 RMK A01 T02470127  RH  047%=      5-min Rain = 0
KLA1 181737Z 12009KT 25/13 A2981 RMK A01 T02470128  RH  047%=      5-min Rain = 0
KLA1 181738Z 12008KT 25/13 A2981 RMK A01 T02490127  RH  047%=      5-min Rain = 0
KLA1 181739Z 16008KT 25/13 A2981 RMK A01 T02480128  RH  047%=      5-min Rain = 0
KLA1 181740Z 16011KT 25/13 A2981 RMK A01 T02490127  RH  046%=      5-min Rain = 0
KLA1 181741Z 15011KT 25/13 A2981 RMK A01 T02490126  RH  046%=      5-min Rain = 0
KLA1 181742Z 16009KT 25/13 A2981 RMK A01 T02480126  RH  047%=      5-min Rain = 0
KLA1 181743Z 17008KT 25/13 A2981 RMK A01 T02470126  RH  047%=      5-min Rain = 0
KLA1 181744Z 18010KT 25/13 A2981 RMK A01 T02480127  RH  047%=      5-min Rain = 0
KLA1 181745Z 17009KT 25/13 A2981 RMK A01 T02500127  RH  046%=      5-min Rain = 0
KLA1 181746Z 17008KT 25/13 A2981 RMK A01 T02510128  RH  046%=      5-min Rain = 0
KLA1 181747Z 15009KT 25/13 A2981 RMK A01 T02510127  RH  046%=      5-min Rain = 0
KLA1 181748Z 15009KT 25/13 A2981 RMK A01 T02530128  RH  046%=      5-min Rain = 0
KLA1 181749Z 15011KT 26/13 A2981 RMK A01 T02550128  RH  045%=      5-min Rain = 0
KLA1 181750Z 15009KT 26/13 A2981 RMK A01 T02550127  RH  045%=      5-min Rain = 0
KLA1 181751Z 17010KT 25/13 A2981 RMK A01 T02540127  RH  045%=      5-min Rain = 0
KLA1 181752Z 17009KT 25/13 A2981 RMK A01 T02510127  RH  046%=      5-min Rain = 0
KLA1 181753Z 15007KT 25/13 A2981 RMK A01 T02500127  RH  046%=      5-min Rain = 0
KLA1 181754Z 18008KT 25/13 A2981 RMK A01 T02510128  RH  046%=      5-min Rain = 0
KLA1 181755Z 17010KT 25/13 A2981 RMK A01 T02530127  RH  046%=      5-min Rain = 0
KLA1 181756Z 16006KT 25/13 A2981 RMK A01 T02530128  RH  046%=      5-min Rain = 0
KLA1 181757Z 18006KT 25/13 A2981 RMK A01 T02540128  RH  045%=      5-min Rain = 0
KLA1 181758Z 15009KT 25/13 A298 RMK A01 T02540129  RH  046%=      5-min Rain = 0
KLA1 181759Z 14010G15KT 26/13 A298 RMK A01 T02550129  RH  045%=      5-min Rain = 0
KLA1 181800Z 15010G15KT 26/13 A298 RMK A01 T02570127  RH  044%=      5-min Rain = 0
KLA1 181801Z 15009KT 26/13 A298 RMK A01 T02570127  RH  044%=      5-min Rain = 0
KLA1 181802Z 15010KT 26/13 A298 RMK A01 T02560128  RH  045%=      5-min Rain = 0
KLA1 181803Z 14008KT 26/13 A298 RMK A01 T02580127  RH  044%=      5-min Rain = 0
KLA1 181804Z 16006KT 26/13 A298 RMK A01 T02570128  RH  045%=      5-min Rain = 0
KLA1 181805Z 16008KT 26/13 A298 RMK A01 T02570128  RH  045%=      5-min Rain = 0
KLA1 181806Z 15011KT 26/13 A298 RMK A01 T02600128  RH  044%=      5-min Rain = 0
KLA1 181807Z 15009KT 26/13 A298 RMK A01 T02600127  RH  044%=      5-min Rain = 0
KLA1 181808Z 13010KT 26/13 A298 RMK A01 T02580127  RH  044%=      5-min Rain = 0
KLA1 181809Z 14011KT 26/13 A2979 RMK A01 T02580127  RH  044%=      5-min Rain = 0
KLA1 181810Z 16010KT 26/13 A2979 RMK A01 T02590126  RH  044%=      5-min Rain = 0
KLA1 181811Z 17008KT 26/13 A2979 RMK A01 T02600126  RH  043%=      5-min Rain = 0
KLA1 181812Z 17008KT 26/13 A2979 RMK A01 T02610127  RH  043%=      5-min Rain = 0
KLA1 181813Z 16010KT 26/13 A2979 RMK A01 T02620127  RH  043%=      5-min Rain = 0
KLA1 181814Z 15007KT 26/13 A2979 RMK A01 T02640129  RH  043%=      5-min Rain = 0
KLA1 181815Z 16007KT 27/13 A2979 RMK A01 T02680130  RH  042%=      5-min Rain = 0
KLA1 181816Z 17008KT 27/13 A2979 RMK A01 T02690128  RH  042%=      5-min Rain = 0
KLA1 181817Z 15010KT 27/13 A2979 RMK A01 T02670130  RH  042%=      5-min Rain = 0
KLA1 181818Z 14011KT 27/13 A2979 RMK A01 T02670128  RH  042%=      5-min Rain = 0
KLA1 181819Z 16010KT 27/13 A2979 RMK A01 T02650128  RH  043%=      5-min Rain = 0
KLA1 181820Z 16012KT 26/13 A2979 RMK A01 T02640127  RH  043%=      5-min Rain = 0
KLA1 181821Z 14010KT 26/13 A2979 RMK A01 T02630127  RH  043%=      5-min Rain = 0
KLA1 181822Z 16011KT 27/13 A2979 RMK A01 T02650127  RH  042%=      5-min Rain = 0
KLA1 181823Z 16007KT 27/13 A2978 RMK A01 T02660127  RH  042%=      5-min Rain = 0
KLA1 181824Z 13011KT 27/13 A2978 RMK A01 T02670129  RH  042%=      5-min Rain = 0
KLA1 181825Z 13008KT 27/13 A2978 RMK A01 T02700128  RH  042%=      5-min Rain = 0
KLA1 181826Z 14009KT 27/13 A2978 RMK A01 T02690128  RH  042%=      5-min Rain = 0
KLA1 181827Z 16009G14KT 27/13 A2978 RMK A01 T02690129  RH  042%=      5-min Rain = 0
KLA1 181828Z 16010G15KT 27/13 A2978 RMK A01 T02700128  RH  041%=      5-min Rain = 0
KLA1 181829Z 14008KT 27/13 A2978 RMK A01 T02690129  RH  042%=      5-min Rain = 0
KLA1 181830Z 13007KT 27/13 A2978 RMK A01 T02690129  RH  042%=      5-min Rain = 0
KLA1 181831Z 16009KT 27/13 A2978 RMK A01 T02720130  RH  041%=      5-min Rain = 0
KLA1 181832Z 16010KT 27/13 A2978 RMK A01 T02740129  RH  041%=      5-min Rain = 0
KLA1 181833Z 16008KT 28/13 A2978 RMK A01 T02750129  RH  040%=      5-min Rain = 0
KLA1 181834Z 15009KT 27/13 A2978 RMK A01 T02720129  RH  041%=      5-min Rain = 0
KLA1 181835Z 17010KT 28/13 A2978 RMK A01 T02750129  RH  041%=      5-min Rain = 0
KLA1 181836Z 19010KT 28/13 A2978 RMK A01 T02780127  RH  039%=      5-min Rain = 0
KLA1 181837Z 17008KT 27/13 A2978 RMK A01 T02740127  RH  040%=      5-min Rain = 0
KLA1 181838Z 17007KT 27/13 A2978 RMK A01 T02720128  RH  041%=      5-min Rain = 0
KLA1 181839Z 15010KT 27/13 A2978 RMK A01 T02740129  RH  041%=      5-min Rain = 0
KLA1 181840Z 15010KT 28/13 A2978 RMK A01 T02750128  RH  040%=      5-min Rain = 0
KLA1 181841Z 17009KT 27/13 A2977 RMK A01 T02740129  RH  041%=      5-min Rain = 0
KLA1 181842Z 16008KT 27/13 A2977 RMK A01 T02740129  RH  041%=      5-min Rain = 0
KLA1 181843Z 16009KT 28/13 A2977 RMK A01 T02760129  RH  040%=      5-min Rain = 0
KLA1 181844Z 16009KT 28/13 A2977 RMK A01 T02770129  RH  040%=      5-min Rain = 0
KLA1 181845Z 17010KT 28/13 A2977 RMK A01 T02770129  RH  040%=      5-min Rain = 0
KLA1 181846Z 17010KT 28/13 A2977 RMK A01 T02770129  RH  040%=      5-min Rain = 0
KLA1 181847Z 16012KT 28/13 A2977 RMK A01 T02770129  RH  040%=      5-min Rain = 0
KLA1 181848Z 17010KT 28/13 A2977 RMK A01 T02760127  RH  040%=      5-min Rain = 0
KLA1 181849Z 18010KT 27/13 A2977 RMK A01 T02740127  RH  040%=      5-min Rain = 0
KLA1 181850Z 17008KT 27/13 A2977 RMK A01 T02720127  RH  041%=      5-min Rain = 0
KLA1 181851Z 15013KT 27/13 A2977 RMK A01 T02730128  RH  041%=      5-min Rain = 0
KLA1 181852Z 14011KT 28/13 A2977 RMK A01 T02750128  RH  040%=      5-min Rain = 0
KLA1 181853Z 15010KT 28/13 A2977 RMK A01 T02760128  RH  040%=      5-min Rain = 0
KLA1 181854Z 15007KT 28/13 A2977 RMK A01 T02760128  RH  040%=      5-min Rain = 0
KLA1 181855Z 14009KT 28/13 A2976 RMK A01 T02780128  RH  040%=      5-min Rain = 0
KLA1 181856Z 15009KT 28/13 A2976 RMK A01 T02790128  RH  039%=      5-min Rain = 0
KLA1 181857Z 15009KT 28/13 A2976 RMK A01 T02810130  RH  039%=      5-min Rain = 0
KLA1 181858Z 15008KT 28/13 A2976 RMK A01 T02830130  RH  039%=      5-min Rain = 0
KLA1 181859Z 16008KT 28/13 A2976 RMK A01 T02830130  RH  039%=      5-min Rain = 0
KLA1 181900Z 16010KT 28/13 A2976 RMK A01 T02820129  RH  039%=      5-min Rain = 0
KLA1 181901Z 18009KT 28/13 A2976 RMK A01 T02800130  RH  039%=      5-min Rain = 0
KLA1 181902Z 17010KT 28/13 A2976 RMK A01 T02800129  RH  039%=      5-min Rain = 0
KLA1 181903Z 17009KT 28/13 A2976 RMK A01 T02780129  RH  040%=      5-min Rain = 0
KLA1 181904Z 15008KT 28/13 A2976 RMK A01 T02780130  RH  040%=      5-min Rain = 0
KLA1 181905Z 17007G13KT 28/13 A2976 RMK A01 T02790130  RH  040%=      5-min Rain = 0
KLA1 181906Z 17007G12KT 28/13 A2976 RMK A01 T02810131  RH  039%=      5-min Rain = 0
KLA1 181907Z 17008KT 28/13 A2975 RMK A01 T02830130  RH  039%=      5-min Rain = 0
KLA1 181908Z 18011G17KT 28/13 A2976 RMK A01 T02840131  RH  039%=      5-min Rain = 0
KLA1 181909Z 18014KT 29/13 A2975 RMK A01 T02850130  RH  038%=      5-min Rain = 0
KLA1 181910Z 18008KT 28/13 A2975 RMK A01 T02820131  RH  039%=      5-min Rain = 0
KLA1 181911Z 19007KT 28/13 A2975 RMK A01 T02810130  RH  039%=      5-min Rain = 0
KLA1 181912Z 19009KT 28/13 A2975 RMK A01 T02780130  RH  040%=      5-min Rain = 0
KLA1 181913Z 17008KT 28/13 A2975 RMK A01 T02790130  RH  040%=      5-min Rain = 0
KLA1 181914Z 16008KT 28/13 A2975 RMK A01 T02830131  RH  039%=      5-min Rain = 0
KLA1 181915Z 15012KT 29/13 A2975 RMK A01 T02850130  RH  039%=      5-min Rain = 0
KLA1 181916Z 15011KT 28/13 A2975 RMK A01 T02840129  RH  038%=      5-min Rain = 0
KLA1 181917Z 15009KT 28/13 A2975 RMK A01 T02810130  RH  039%=      5-min Rain = 0
KLA1 181918Z 17008G13KT 28/13 A2975 RMK A01 T02820130  RH  039%=      5-min Rain = 0
KLA1 181919Z 17008KT 28/13 A2975 RMK A01 T02830131  RH  039%=      5-min Rain = 0
KLA1 181920Z 16009KT 29/13 A2975 RMK A01 T02850131  RH  039%=      5-min Rain = 0
KLA1 181921Z 16011KT 29/13 A2974 RMK A01 T02860130  RH  038%=      5-min Rain = 0
KLA1 181922Z 16009KT 28/13 A2974 RMK A01 T02840130  RH  039%=      5-min Rain = 0
KLA1 181923Z 17014KT 28/13 A2974 RMK A01 T02840131  RH  039%=      5-min Rain = 0
KLA1 181924Z 17011KT 28/13 A2974 RMK A01 T02840131  RH  039%=      5-min Rain = 0
KLA1 181925Z 18012KT 28/13 A2974 RMK A01 T02830131  RH  039%=      5-min Rain = 0
KLA1 181926Z 18010KT 28/13 A2974 RMK A01 T02820132  RH  040%=      5-min Rain = 0
KLA1 181927Z 18009KT 28/13 A2974 RMK A01 T02830132  RH  040%=      5-min Rain = 0
KLA1 181928Z 17008KT 29/13 A2974 RMK A01 T02870133  RH  039%=      5-min Rain = 0
KLA1 181929Z 18011KT 29/13 A2974 RMK A01 T02890133  RH  038%=      5-min Rain = 0
KLA1 181930Z 19006KT 29/13 A2974 RMK A01 T02900133  RH  038%=      5-min Rain = 0
KLA1 181931Z 18009KT 29/13 A2974 RMK A01 T02900132  RH  038%=      5-min Rain = 0
KLA1 181932Z 17009KT 29/13 A2974 RMK A01 T02890132  RH  038%=      5-min Rain = 0
KLA1 181933Z 18010G15KT 29/13 A2973 RMK A01 T02890133  RH  038%=      5-min Rain = 0
KLA1 181934Z 17011KT 29/13 A2973 RMK A01 T02920133  RH  038%=      5-min Rain = 0
KLA1 181935Z 18011KT 29/13 A2973 RMK A01 T02930133  RH  037%=      5-min Rain = 0
KLA1 181936Z 18013KT 29/13 A2973 RMK A01 T02910132  RH  038%=      5-min Rain = 0
KLA1 181937Z 17010KT 29/13 A2973 RMK A01 T02880132  RH  038%=      5-min Rain = 0
KLA1 181938Z 20010KT 29/13 A2973 RMK A01 T02860132  RH  039%=      5-min Rain = 0
KLA1 181939Z 18011KT 29/13 A2973 RMK A01 T02850132  RH  039%=      5-min Rain = 0
KLA1 181940Z 18008KT 29/13 A2973 RMK A01 T02860132  RH  039%=      5-min Rain = 0
KLA1 181941Z 17009KT 29/13 A2973 RMK A01 T02860131  RH  039%=      5-min Rain = 0
KLA1 181942Z 18013KT 28/13 A2973 RMK A01 T02830131  RH  039%=      5-min Rain = 0
KLA1 181943Z 18012KT 29/13 A2973 RMK A01 T02850131  RH  039%=      5-min Rain = 0
KLA1 181944Z 17010KT 29/13 A2973 RMK A01 T02860131  RH  039%=      5-min Rain = 0
KLA1 181945Z 18010KT 29/13 A2973 RMK A01 T02850132  RH  039%=      5-min Rain = 0
KLA1 181946Z 17010KT 28/13 A2973 RMK A01 T02840132  RH  039%=      5-min Rain = 0
KLA1 181947Z 18009G14KT 28/13 A2973 RMK A01 T02830132  RH  039%=      5-min Rain = 0
KLA1 181948Z 17010G15KT 29/13 A2973 RMK A01 T02850131  RH  039%=      5-min Rain = 0
KLA1 181949Z 17008KT 29/13 A2973 RMK A01 T02850131  RH  039%=      5-min Rain = 0
KLA1 181950Z 16008KT 29/13 A2973 RMK A01 T02860132  RH  039%=      5-min Rain = 0
KLA1 181951Z 15007KT 29/13 A2972 RMK A01 T02870131  RH  038%=      5-min Rain = 0
KLA1 181952Z 17008KT 29/13 A2972 RMK A01 T02870132  RH  038%=      5-min Rain = 0
KLA1 181953Z 15011KT 29/13 A2972 RMK A01 T02890132  RH  038%=      5-min Rain = 0
KLA1 181954Z 14012KT 29/13 A2972 RMK A01 T02910131  RH  038%=      5-min Rain = 0
KLA1 181955Z 16010KT 29/13 A2972 RMK A01 T02900132  RH  038%=      5-min Rain = 0
KLA1 181956Z 17010KT 29/13 A2972 RMK A01 T02890132  RH  038%=      5-min Rain = 0
KLA1 181957Z 15010KT 29/13 A2972 RMK A01 T02890132  RH  038%=      5-min Rain = 0
KLA1 181958Z 13011KT 29/13 A2972 RMK A01 T02880132  RH  038%=      5-min Rain = 0
KLA1 181959Z 14009G15KT 29/13 A2972 RMK A01 T02880133  RH  038%=      5-min Rain = 0
KLA1 182000Z 14012G17KT 29/13 A2972 RMK A01 T02910132  RH  038%=      5-min Rain = 0
KLA1 182001Z 15011KT 29/13 A2972 RMK A01 T02910132  RH  038%=      5-min Rain = 0
KLA1 182002Z 17009KT 29/13 A2972 RMK A01 T02910133  RH  038%=      5-min Rain = 0
KLA1 182003Z 17005KT 29/13 A2972 RMK A01 T02920133  RH  038%=      5-min Rain = 0
KLA1 182004Z 17011G16KT 29/13 A2972 RMK A01 T02930134  RH  038%=      5-min Rain = 0
KLA1 182005Z 17012KT 30/13 A2972 RMK A01 T02950133  RH  037%=      5-min Rain = 0
KLA1 182006Z 16012KT 29/13 A2972 RMK A01 T02940134  RH  037%=      5-min Rain = 0
KLA1 182007Z 16009KT 29/13 A2972 RMK A01 T02910132  RH  038%=      5-min Rain = 0
KLA1 182008Z 16007KT 29/13 A2971 RMK A01 T02900133  RH  038%=      5-min Rain = 0
KLA1 182009Z 15010KT 29/13 A2971 RMK A01 T02900133  RH  038%=      5-min Rain = 0
KLA1 182010Z 16011KT 29/13 A2971 RMK A01 T02910132  RH  038%=      5-min Rain = 0
KLA1 182011Z 15009KT 29/13 A2971 RMK A01 T02910133  RH  038%=      5-min Rain = 0
KLA1 182012Z 16009KT 29/13 A2971 RMK A01 T02900133  RH  038%=      5-min Rain = 0
KLA1 182013Z 15008KT 29/13 A2971 RMK A01 T02910133  RH  038%=      5-min Rain = 0
KLA1 182014Z 13010KT 29/13 A2971 RMK A01 T02900134  RH  038%=      5-min Rain = 0
KLA1 182015Z 14010KT 29/13 A2971 RMK A01 T02900133  RH  038%=      5-min Rain = 0
KLA1 182016Z 15007KT 29/13 A2971 RMK A01 T02900133  RH  038%=      5-min Rain = 0
KLA1 182017Z 15007KT 29/13 A2971 RMK A01 T02900133  RH  038%=      5-min Rain = 0
KLA1 182018Z 16009KT 29/14 A2971 RMK A01 T02910135  RH  038%=      5-min Rain = 0
KLA1 182019Z 15011KT 30/14 A2971 RMK A01 T02960135  RH  037%=      5-min Rain = 0
KLA1 182020Z 15013KT 30/14 A2971 RMK A01 T02980135  RH  037%=      5-min Rain = 0
KLA1 182021Z 15011KT 30/14 A2971 RMK A01 T02970135  RH  037%=      5-min Rain = 0
KLA1 182022Z 15011KT 30/14 A297 RMK A01 T02970135  RH  037%=      5-min Rain = 0
KLA1 182023Z 15011KT 30/14 A2971 RMK A01 T02980135  RH  037%=      5-min Rain = 0
KLA1 182024Z 15010G15KT 30/14 A297 RMK A01 T02980135  RH  037%=      5-min Rain = 0
KLA1 182025Z 16009KT 30/14 A297 RMK A01 T02990136  RH  037%=      5-min Rain = 0
KLA1 182026Z 17008KT 30/14 A297 RMK A01 T03000135  RH  036%=      5-min Rain = 0
KLA1 182027Z 15010KT 30/14 A297 RMK A01 T02990136  RH  037%=      5-min Rain = 0
KLA1 182028Z 15009KT 30/14 A297 RMK A01 T02990135  RH  037%=      5-min Rain = 0
KLA1 182029Z 15009G14KT 30/14 A297 RMK A01 T02980136  RH  037%=      5-min Rain = 0
KLA1 182030Z 18011KT 30/14 A297 RMK A01 T02980136  RH  037%=      5-min Rain = 0
KLA1 182031Z 18009KT 30/14 A297 RMK A01 T02980135  RH  037%=      5-min Rain = 0
KLA1 182032Z 14012KT 30/14 A297 RMK A01 T02990136  RH  037%=      5-min Rain = 0
KLA1 182033Z 15012KT 30/14 A297 RMK A01 T02980135  RH  037%=      5-min Rain = 0
KLA1 182034Z 16011KT 30/14 A297 RMK A01 T02970135  RH  037%=      5-min Rain = 0
KLA1 182035Z 14013KT 30/14 A297 RMK A01 T02980135  RH  037%=      5-min Rain = 0
KLA1 182036Z 15009KT 30/14 A297 RMK A01 T02980135  RH  037%=      5-min Rain = 0
KLA1 182037Z 16011KT 30/14 A297 RMK A01 T02980135  RH  037%=      5-min Rain = 0
KLA1 182038Z 18012KT 30/14 A297 RMK A01 T02980135  RH  037%=      5-min Rain = 0
KLA1 182039Z 19010KT 30/13 A297 RMK A01 T02960134  RH  037%=      5-min Rain = 0
KLA1 182040Z 18009KT 29/13 A297 RMK A01 T02940134  RH  038%=      5-min Rain = 0
KLA1 182041Z 17007G12KT 30/14 A297 RMK A01 T02950136  RH  038%=      5-min Rain = 0
KLA1 182042Z 14008KT 30/14 A297 RMK A01 T02990135  RH  037%=      5-min Rain = 0
KLA1 182043Z 13012KT 30/14 A297 RMK A01 T03010135  RH  036%=      5-min Rain = 0
KLA1 182044Z 13012G17KT 30/13 A297 RMK A01 T03010134  RH  036%=      5-min Rain = 0
KLA1 182045Z 14013KT 30/13 A297 RMK A01 T03000134  RH  036%=      5-min Rain = 0
KLA1 182046Z 14013KT 30/13 A297 RMK A01 T03000134  RH  036%=      5-min Rain = 0
KLA1 182047Z 14009KT 30/13 A297 RMK A01 T02990133  RH  036%=      5-min Rain = 0
KLA1 182048Z 14006KT 30/13 A297 RMK A01 T02960133  RH  037%=      5-min Rain = 0
KLA1 182049Z 14008KT 30/13 A297 RMK A01 T02970134  RH  037%=      5-min Rain = 0
KLA1 182050Z 15010KT 30/14 A297 RMK A01 T03020135  RH  036%=      5-min Rain = 0
KLA1 182051Z 15009KT 31/14 A297 RMK A01 T03060135  RH  035%=      5-min Rain = 0
KLA1 182052Z 17008KT 31/13 A297 RMK A01 T03070134  RH  035%=      5-min Rain = 0
KLA1 182053Z 17007KT 31/13 A297 RMK A01 T03060134  RH  035%=      5-min Rain = 0
KLA1 182054Z 15008KT 31/13 A297 RMK A01 T03060134  RH  035%=      5-min Rain = 0
KLA1 182055Z 14012KT 31/13 A297 RMK A01 T03050134  RH  035%=      5-min Rain = 0
KLA1 182056Z 15009KT 30/13 A297 RMK A01 T03040133  RH  035%=      5-min Rain = 0
KLA1 182057Z 16012G17KT 30/13 A297 RMK A01 T03030133  RH  036%=      5-min Rain = 0
KLA1 182058Z 15012KT 30/13 A297 RMK A01 T03010133  RH  036%=      5-min Rain = 0
KLA1 182059Z 14011KT 30/13 A2969 RMK A01 T02990132  RH  036%=      5-min Rain = 0
KLA1 182100Z 14010KT 30/13 A297 RMK A01 T02990132  RH  036%=      5-min Rain = 0
KLA1 182101Z 16012KT 30/13 A297 RMK A01 T02990132  RH  036%=      5-min Rain = 0
KLA1 182102Z 14009KT 30/13 A297 RMK A01 T02990132  RH  036%=      5-min Rain = 0
KLA1 182103Z 16007KT 30/13 A2969 RMK A01 T02980132  RH  036%=      5-min Rain = 0
KLA1 182104Z 15009KT 30/13 A2969 RMK A01 T02980133  RH  036%=      5-min Rain = 0
KLA1 182105Z 15010KT 30/13 A297 RMK A01 T03010133  RH  036%=      5-min Rain = 0
KLA1 182106Z 15011KT 30/13 A297 RMK A01 T03030133  RH  035%=      5-min Rain = 0
KLA1 182107Z 15011KT 31/13 A297 RMK A01 T03060134  RH  035%=      5-min Rain = 0
KLA1 182108Z 15009KT 31/13 A297 RMK A01 T03060132  RH  035%=      5-min Rain = 0
KLA1 182109Z 14008KT 30/13 A2969 RMK A01 T03020132  RH  035%=      5-min Rain = 0
KLA1 182110Z 15010KT 30/13 A2969 RMK A01 T03010133  RH  036%=      5-min Rain = 0
KLA1 182111Z 15014KT 30/13 A2969 RMK A01 T03020132  RH  035%=      5-min Rain = 0
KLA1 182112Z 14014KT 30/13 A2969 RMK A01 T03020132  RH  035%=      5-min Rain = 0
KLA1 182113Z 15012KT 30/13 A2969 RMK A01 T03000132  RH  036%=      5-min Rain = 0
KLA1 182114Z 15013KT 30/13 A2969 RMK A01 T03010132  RH  036%=      5-min Rain = 0
KLA1 182115Z 15009KT 30/13 A2969 RMK A01 T03010132  RH  035%=      5-min Rain = 0
KLA1 182116Z 15009KT 30/13 A2969 RMK A01 T03030133  RH  035%=      5-min Rain = 0
KLA1 182117Z 15011KT 30/13 A2969 RMK A01 T03040132  RH  035%=      5-min Rain = 0
KLA1 182118Z 17012KT 30/13 A2969 RMK A01 T03040132  RH  035%=      5-min Rain = 0
KLA1 182119Z 18012KT 30/13 A2969 RMK A01 T03030132  RH  035%=      5-min Rain = 0
KLA1 182120Z 15011KT 30/13 A2969 RMK A01 T03020132  RH  035%=      5-min Rain = 0
KLA1 182121Z 14011KT 30/13 A2969 RMK A01 T03010132  RH  035%=      5-min Rain = 0
KLA1 182122Z 13011KT 30/13 A2969 RMK A01 T03010132  RH  036%=      5-min Rain = 0
KLA1 182123Z 13011KT 30/13 A2969 RMK A01 T03010132  RH  035%=      5-min Rain = 0
KLA1 182124Z 13008KT 30/13 A2969 RMK A01 T03000132  RH  036%=      5-min Rain = 0
KLA1 182125Z 15006KT 30/13 A2969 RMK A01 T03000131  RH  036%=      5-min Rain = 0
KLA1 182126Z 15009G14KT 30/13 A2969 RMK A01 T03000132  RH  036%=      5-min Rain = 0
KLA1 182127Z 17012KT 30/13 A2969 RMK A01 T03020132  RH  035%=      5-min Rain = 0
KLA1 182128Z 17007KT 31/13 A2969 RMK A01 T03050132  RH  035%=      5-min Rain = 0
KLA1 182129Z 18009KT 31/13 A2969 RMK A01 T03050132  RH  035%=      5-min Rain = 0
KLA1 182130Z 14011G16KT 31/13 A2969 RMK A01 T03050132  RH  035%=      5-min Rain = 0
KLA1 182131Z 14013KT 31/13 A2969 RMK A01 T03060132  RH  035%=      5-min Rain = 0
KLA1 182132Z 14012KT 30/13 A2969 RMK A01 T03040132  RH  035%=      5-min Rain = 0
KLA1 182133Z 14012KT 30/13 A2969 RMK A01 T03030132  RH  035%=      5-min Rain = 0
KLA1 182134Z 15011KT 30/13 A2969 RMK A01 T03030132  RH  035%=      5-min Rain = 0
KLA1 182135Z 13011KT 30/13 A2969 RMK A01 T03020132  RH  035%=      5-min Rain = 0
KLA1 182136Z 14008KT 30/13 A2969 RMK A01 T03020132  RH  035%=      5-min Rain = 0
KLA1 182137Z 13005KT 30/13 A2969 RMK A01 T03020132  RH  035%=      5-min Rain = 0
KLA1 182138Z 13008KT 30/13 A2969 RMK A01 T03020133  RH  035%=      5-min Rain = 0
KLA1 182139Z 14011KT 31/13 A2969 RMK A01 T03050134  RH  035%=      5-min Rain = 0
KLA1 182140Z 14013KT 31/13 A2969 RMK A01 T03070133  RH  034%=      5-min Rain = 0
KLA1 182141Z 14009KT 30/13 A2969 RMK A01 T03040132  RH  035%=      5-min Rain = 0
KLA1 182142Z 13010KT 30/13 A2969 RMK A01 T03040133  RH  035%=      5-min Rain = 0
KLA1 182143Z 15010KT 30/13 A2969 RMK A01 T03040132  RH  035%=      5-min Rain = 0
KLA1 182144Z 16010KT 31/13 A2969 RMK A01 T03050133  RH  035%=      5-min Rain = 0
KLA1 182145Z 15010KT 31/13 A2969 RMK A01 T03050133  RH  035%=      5-min Rain = 0
KLA1 182146Z 14011KT 30/13 A2969 RMK A01 T03040132  RH  035%=      5-min Rain = 0
KLA1 182147Z 16012KT 30/13 A2969 RMK A01 T03040133  RH  035%=      5-min Rain = 0
KLA1 182148Z 16009G14KT 31/13 A2969 RMK A01 T03050133  RH  035%=      5-min Rain = 0
KLA1 182149Z 18012KT 31/13 A2969 RMK A01 T03070133  RH  035%=      5-min Rain = 0
KLA1 182150Z 18008KT 31/13 A2969 RMK A01 T03050132  RH  035%=      5-min Rain = 0
KLA1 182151Z 17008KT 30/13 A2969 RMK A01 T03030132  RH  035%=      5-min Rain = 0
KLA1 182152Z 14009G14KT 30/13 A2969 RMK A01 T03020133  RH  035%=      5-min Rain = 0
KLA1 182153Z 15014KT 30/13 A2969 RMK A01 T03030133  RH  035%=      5-min Rain = 0
KLA1 182154Z 15014KT 30/13 A2969 RMK A01 T03030132  RH  035%=      5-min Rain = 0
KLA1 182155Z 15011KT 30/13 A2969 RMK A01 T03010132  RH  036%=      5-min Rain = 0
KLA1 182156Z 15008KT 30/13 A2969 RMK A01 T02980132  RH  036%=      5-min Rain = 0
KLA1 182157Z 14010KT 30/13 A2969 RMK A01 T02980132  RH  036%=      5-min Rain = 0
KLA1 182158Z 16011KT 30/13 A2969 RMK A01 T02990133  RH  036%=      5-min Rain = 0
KLA1 182159Z 15012KT 30/13 A2969 RMK A01 T03010133  RH  036%=      5-min Rain = 0
KLA1 182200Z 15009KT 30/13 A2969 RMK A01 T03010133  RH  036%=      5-min Rain = 0
KLA1 182201Z 15011KT 30/13 A2969 RMK A01 T03000133  RH  036%=      5-min Rain = 0
KLA1 182202Z 14009KT 30/13 A2969 RMK A01 T02990132  RH  036%=      5-min Rain = 0
KLA1 182203Z 13009KT 30/13 A2969 RMK A01 T02990133  RH  036%=      5-min Rain = 0
KLA1 182204Z 14011KT 30/13 A2969 RMK A01 T02990134  RH  036%=      5-min Rain = 0
KLA1 182205Z 14011KT 30/13 A2969 RMK A01 T02990133  RH  036%=      5-min Rain = 0
KLA1 182206Z 13011KT 30/13 A2969 RMK A01 T02980133  RH  036%=      5-min Rain = 0
KLA1 182207Z 15011KT 30/13 A2969 RMK A01 T02980133  RH  036%=      5-min Rain = 0
KLA1 182208Z 14011KT 30/13 A2969 RMK A01 T02960132  RH  036%=      5-min Rain = 0
KLA1 182209Z 14011KT 29/13 A2969 RMK A01 T02940132  RH  037%=      5-min Rain = 0
KLA1 182210Z 14007KT 29/13 A2969 RMK A01 T02920131  RH  037%=      5-min Rain = 0
KLA1 182211Z 15009KT 29/13 A2969 RMK A01 T02920132  RH  037%=      5-min Rain = 0
KLA1 182212Z 16008KT 29/13 A2969 RMK A01 T02930132  RH  037%=      5-min Rain = 0
KLA1 182213Z 15007KT 30/13 A2969 RMK A01 T02950132  RH  037%=      5-min Rain = 0
KLA1 182214Z 15011KT 30/13 A2969 RMK A01 T02980133  RH  036%=      5-min Rain = 0
KLA1 182215Z 14009KT 30/13 A2969 RMK A01 T02990132  RH  036%=      5-min Rain = 0
KLA1 182216Z 13011KT 30/13 A2969 RMK A01 T02990133  RH  036%=      5-min Rain = 0
KLA1 182217Z 15010KT 30/13 A2969 RMK A01 T02990133  RH  036%=      5-min Rain = 0
KLA1 182218Z 16009KT 30/13 A2969 RMK A01 T02990133  RH  036%=      5-min Rain = 0
KLA1 182219Z 14010KT 30/13 A2969 RMK A01 T02990133  RH  036%=      5-min Rain = 0
KLA1 182220Z 14010KT 30/13 A2969 RMK A01 T02980133  RH  036%=      5-min Rain = 0
KLA1 182221Z 16010KT 30/13 A2969 RMK A01 T02970133  RH  037%=      5-min Rain = 0
KLA1 182222Z 13009KT 30/13 A2969 RMK A01 T02950133  RH  037%=      5-min Rain = 0
KLA1 182223Z 14010KT 29/13 A2969 RMK A01 T02940133  RH  037%=      5-min Rain = 0
KLA1 182224Z 14014KT 29/13 A2969 RMK A01 T02930132  RH  037%=      5-min Rain = 0
KLA1 182225Z 14010KT 29/13 A2969 RMK A01 T02920132  RH  037%=      5-min Rain = 0
KLA1 182226Z 16009G15KT 29/13 A2969 RMK A01 T02910132  RH  038%=      5-min Rain = 0
KLA1 182227Z 14013KT 29/13 A2969 RMK A01 T02910132  RH  038%=      5-min Rain = 0
KLA1 182228Z 15013KT 29/13 A2969 RMK A01 T02920133  RH  038%=      5-min Rain = 0
KLA1 182229Z 15011KT 29/13 A2969 RMK A01 T02910133  RH  038%=      5-min Rain = 0
KLA1 182230Z 15012KT 29/13 A2969 RMK A01 T02910133  RH  038%=      5-min Rain = 0
KLA1 182231Z 16012KT 29/13 A2969 RMK A01 T02910133  RH  038%=      5-min Rain = 0
KLA1 182232Z 16006KT 29/13 A2969 RMK A01 T02910134  RH  038%=      5-min Rain = 0
KLA1 182233Z 16007KT 29/13 A2969 RMK A01 T02900133  RH  038%=      5-min Rain = 0
KLA1 182234Z 15012KT 29/13 A2969 RMK A01 T02910134  RH  038%=      5-min Rain = 0
KLA1 182235Z 16011G16KT 29/13 A2969 RMK A01 T02900134  RH  038%=      5-min Rain = 0
KLA1 182236Z 15012KT 29/13 A2969 RMK A01 T02900134  RH  038%=      5-min Rain = 0
KLA1 182237Z 15012KT 29/13 A2969 RMK A01 T02890133  RH  038%=      5-min Rain = 0
KLA1 182238Z 15009KT 29/13 A2969 RMK A01 T02880133  RH  039%=      5-min Rain = 0
KLA1 182239Z 15008KT 29/13 A2969 RMK A01 T02880134  RH  039%=      5-min Rain = 0
KLA1 182240Z 15008KT 29/13 A2969 RMK A01 T02880134  RH  039%=      5-min Rain = 0
KLA1 182241Z 14010KT 29/13 A2969 RMK A01 T02880134  RH  039%=      5-min Rain = 0
KLA1 182242Z 14011KT 29/13 A2969 RMK A01 T02900134  RH  038%=      5-min Rain = 0
KLA1 182243Z 15011KT 29/13 A2969 RMK A01 T02910134  RH  038%=      5-min Rain = 0
KLA1 182244Z 15010KT 29/13 A2969 RMK A01 T02900134  RH  038%=      5-min Rain = 0
KLA1 182245Z 15010KT 29/14 A2969 RMK A01 T02900135  RH  038%=      5-min Rain = 0
KLA1 182246Z 14008KT 29/14 A2969 RMK A01 T02890135  RH  039%=      5-min Rain = 0
KLA1 182247Z 14009KT 29/14 A2969 RMK A01 T02890135  RH  039%=      5-min Rain = 0
KLA1 182248Z 14009KT 29/14 A2969 RMK A01 T02890135  RH  039%=      5-min Rain = 0
KLA1 182249Z 14007KT 29/14 A2969 RMK A01 T02890135  RH  039%=      5-min Rain = 0
KLA1 182250Z 15007KT 29/14 A2969 RMK A01 T02890136  RH  039%=      5-min Rain = 0
KLA1 182251Z 15006KT 29/14 A2969 RMK A01 T02890136  RH  039%=      5-min Rain = 0
KLA1 182252Z 15009G14KT 29/14 A2969 RMK A01 T02890136  RH  039%=      5-min Rain = 0
KLA1 182253Z 15012KT 29/14 A2969 RMK A01 T02890136  RH  039%=      5-min Rain = 0
KLA1 182254Z 16012KT 29/14 A2969 RMK A01 T02890135  RH  039%=      5-min Rain = 0
KLA1 182255Z 16009KT 29/14 A2969 RMK A01 T02890135  RH  039%=      5-min Rain = 0
KLA1 182256Z 16008KT 29/14 A2969 RMK A01 T02910136  RH  039%=      5-min Rain = 0
KLA1 182257Z 15007KT 29/14 A2969 RMK A01 T02930136  RH  038%=      5-min Rain = 0
KLA1 182258Z 15007KT 29/14 A2969 RMK A01 T02940136  RH  038%=      5-min Rain = 0
KLA1 182259Z 15008KT 30/14 A2969 RMK A01 T02950137  RH  038%=      5-min Rain = 0
KLA1 182300Z 15009KT 30/14 A2969 RMK A01 T02960137  RH  038%=      5-min Rain = 0
KLA1 182301Z 14009KT 29/14 A2969 RMK A01 T02940136  RH  038%=      5-min Rain = 0
KLA1 182302Z 15008KT 29/14 A2969 RMK A01 T02940136  RH  038%=      5-min Rain = 0
KLA1 182303Z 15010KT 29/14 A2969 RMK A01 T02940137  RH  038%=      5-min Rain = 0
KLA1 182304Z 17010KT 30/14 A2969 RMK A01 T02950137  RH  038%=      5-min Rain = 0
KLA1 182305Z 17009KT 30/14 A2969 RMK A01 T02960137  RH  038%=      5-min Rain = 0
KLA1 182306Z 16008G13KT 30/14 A2969 RMK A01 T02960137  RH  038%=      5-min Rain = 0
KLA1 182307Z 16011KT 30/14 A2969 RMK A01 T02950137  RH  038%=      5-min Rain = 0
KLA1 182308Z 16010KT 30/14 A2969 RMK A01 T02950137  RH  038%=      5-min Rain = 0
KLA1 182309Z 15011KT 30/14 A2969 RMK A01 T02950137  RH  038%=      5-min Rain = 0
KLA1 182310Z 15010KT 30/14 A2969 RMK A01 T02950137  RH  038%=      5-min Rain = 0
KLA1 182311Z 15011KT 30/14 A2969 RMK A01 T02950137  RH  038%=      5-min Rain = 0
KLA1 182312Z 14010KT 30/14 A2969 RMK A01 T02960137  RH  038%=      5-min Rain = 0
KLA1 182313Z 15012KT 30/14 A2969 RMK A01 T02960138  RH  038%=      5-min Rain = 0
KLA1 182314Z 14012KT 30/14 A2969 RMK A01 T02960138  RH  038%=      5-min Rain = 0
KLA1 182315Z 14012KT 30/14 A2969 RMK A01 T02950138  RH  038%=      5-min Rain = 0
KLA1 182316Z 15011KT 30/14 A2969 RMK A01 T02950139  RH  038%=      5-min Rain = 0
KLA1 182317Z 16010KT 30/14 A2969 RMK A01 T02950139  RH  039%=      5-min Rain = 0
KLA1 182318Z 15012KT 30/14 A2969 RMK A01 T02950140  RH  039%=      5-min Rain = 0
KLA1 182319Z 14011KT 29/14 A2969 RMK A01 T02940139  RH  039%=      5-min Rain = 0
KLA1 182320Z 15012KT 29/14 A2969 RMK A01 T02940140  RH  039%=      5-min Rain = 0
KLA1 182321Z 16010KT 29/14 A2969 RMK A01 T02930140  RH  039%=      5-min Rain = 0
KLA1 182322Z 16011KT 29/14 A2969 RMK A01 T02910140  RH  039%=      5-min Rain = 0
KLA1 182323Z 17010KT 29/14 A2969 RMK A01 T02910140  RH  040%=      5-min Rain = 0
KLA1 182324Z 16011KT 29/14 A2969 RMK A01 T02890139  RH  040%=      5-min Rain = 0
KLA1 182325Z 17011KT 29/14 A2969 RMK A01 T02880139  RH  040%=      5-min Rain = 0
KLA1 182326Z 18009KT 29/14 A2969 RMK A01 T02880140  RH  040%=      5-min Rain = 0
KLA1 182327Z 18009KT 29/14 A2969 RMK A01 T02880139  RH  040%=      5-min Rain = 0
KLA1 182328Z 15010KT 29/14 A2969 RMK A01 T02880139  RH  040%=      5-min Rain = 0
KLA1 182329Z 14012KT 29/14 A2969 RMK A01 T02880140  RH  040%=      5-min Rain = 0
KLA1 182330Z 14011KT 29/14 A2969 RMK A01 T02880141  RH  041%=      5-min Rain = 0
KLA1 182331Z 14010G15KT 29/14 A2969 RMK A01 T02870141  RH  041%=      5-min Rain = 0
KLA1 182332Z 15013KT 29/14 A2969 RMK A01 T02870141  RH  041%=      5-min Rain = 0
KLA1 182333Z 15011KT 29/14 A2969 RMK A01 T02870141  RH  041%=      5-min Rain = 0
KLA1 182334Z 14010KT 29/14 A2969 RMK A01 T02860142  RH  041%=      5-min Rain = 0
KLA1 182335Z 14009KT 29/14 A2969 RMK A01 T02850142  RH  041%=      5-min Rain = 0
KLA1 182336Z 15010KT 29/14 A2969 RMK A01 T02850142  RH  041%=      5-min Rain = 0
KLA1 182337Z 16012KT 29/14 A2969 RMK A01 T02850142  RH  042%=      5-min Rain = 0
KLA1 182338Z 16007G12KT 29/14 A2969 RMK A01 T02850143  RH  042%=      5-min Rain = 0
KLA1 182339Z 16010KT 28/14 A2969 RMK A01 T02840143  RH  042%=      5-min Rain = 0
KLA1 182340Z 15009KT 28/14 A2969 RMK A01 T02840143  RH  042%=      5-min Rain = 0
KLA1 182341Z 15008KT 28/14 A2969 RMK A01 T02840143  RH  042%=      5-min Rain = 0
KLA1 182342Z 16006KT 28/14 A2969 RMK A01 T02830143  RH  042%=      5-min Rain = 0
KLA1 182343Z 15006KT 28/14 A2969 RMK A01 T02830144  RH  042%=      5-min Rain = 0
KLA1 182344Z 15009KT 28/14 A2969 RMK A01 T02830144  RH  043%=      5-min Rain = 0
KLA1 182345Z 14008KT 28/14 A2969 RMK A01 T02820144  RH  043%=      5-min Rain = 0
KLA1 182346Z 14010KT 28/14 A2969 RMK A01 T02810144  RH  043%=      5-min Rain = 0
KLA1 182347Z 14011KT 28/15 A2969 RMK A01 T02810145  RH  043%=      5-min Rain = 0
KLA1 182348Z 14009KT 28/15 A2969 RMK A01 T02800145  RH  044%=      5-min Rain = 0
KLA1 182349Z 14009KT 28/15 A2969 RMK A01 T02790145  RH  044%=      5-min Rain = 0
KLA1 182350Z 14009KT 28/15 A2969 RMK A01 T02790145  RH  044%=      5-min Rain = 0
KLA1 182351Z 15011KT 28/15 A2969 RMK A01 T02780145  RH  044%=      5-min Rain = 0
KLA1 182352Z 15008KT 28/15 A2969 RMK A01 T02770146  RH  045%=      5-min Rain = 0
KLA1 182353Z 16010KT 28/15 A2969 RMK A01 T02760146  RH  045%=      5-min Rain = 0
KLA1 182354Z 15011KT 28/15 A2969 RMK A01 T02750146  RH  045%=      5-min Rain = 0
KLA1 182355Z 15008KT 27/15 A2969 RMK A01 T02740146  RH  045%=      5-min Rain = 0
KLA1 182356Z 15007KT 27/15 A2969 RMK A01 T02740146  RH  046%=      5-min Rain = 0
KLA1 182357Z 15008KT 27/15 A2969 RMK A01 T02730146  RH  046%=      5-min Rain = 0
KLA1 182358Z 14007KT 27/15 A2969 RMK A01 T02730146  RH  046%=      5-min Rain = 0
KLA1 182359Z 13008KT 27/15 A2969 RMK A01 T02720146  RH  046%=      5-min Rain = 0
KLA1 190000Z 15009KT 27/15 A2969 RMK A01 T02720146  RH  046%=      5-min Rain = 0
KLA1 190001Z 15009KT 27/15 A2969 RMK A01 T02710146  RH  046%=      5-min Rain = 0
KLA1 190002Z 14007KT 27/15 A2969 RMK A01 T02710147  RH  046%=      5-min Rain = 0
KLA1 190003Z 14006KT 27/15 A2969 RMK A01 T02710147  RH  047%=      5-min Rain = 0
KLA1 190004Z 14008KT 27/15 A2969 RMK A01 T02700147  RH  047%=      5-min Rain = 0
KLA1 190005Z 15008KT 27/15 A2969 RMK A01 T02700147  RH  047%=      5-min Rain = 0
KLA1 190006Z 14009KT 27/15 A2969 RMK A01 T02690147  RH  047%=      5-min Rain = 0
KLA1 190007Z 15010KT 27/15 A2969 RMK A01 T02680148  RH  048%=      5-min Rain = 0
KLA1 190008Z 14011KT 27/15 A2969 RMK A01 T02680148  RH  048%=      5-min Rain = 0
KLA1 190009Z 14009KT 27/15 A2969 RMK A01 T02670148  RH  048%=      5-min Rain = 0
KLA1 190010Z 14011KT 27/15 A2969 RMK A01 T02670148  RH  048%=      5-min Rain = 0
KLA1 190011Z 15009KT 27/15 A2969 RMK A01 T02670149  RH  048%=      5-min Rain = 0
KLA1 190012Z 15009KT 27/15 A297 RMK A01 T02660148  RH  048%=      5-min Rain = 0
KLA1 190013Z 15009KT 27/15 A297 RMK A01 T02660148  RH  048%=      5-min Rain = 0
KLA1 190014Z 14010KT 27/15 A297 RMK A01 T02650148  RH  049%=      5-min Rain = 0
KLA1 190015Z 14010KT 27/15 A297 RMK A01 T02650148  RH  049%=      5-min Rain = 0
KLA1 190016Z 14010KT 27/15 A297 RMK A01 T02650149  RH  049%=      5-min Rain = 0
KLA1 190017Z 15010KT 26/15 A297 RMK A01 T02640149  RH  049%=      5-min Rain = 0
KLA1 190018Z 14008KT 26/15 A297 RMK A01 T02640149  RH  049%=      5-min Rain = 0
KLA1 190019Z 15010KT 26/15 A297 RMK A01 T02640149  RH  049%=      5-min Rain = 0
KLA1 190020Z 16010KT 26/15 A297 RMK A01 T02640149  RH  049%=      5-min Rain = 0
KLA1 190021Z 15009KT 26/15 A297 RMK A01 T02640149  RH  049%=      5-min Rain = 0
KLA1 190022Z 15009KT 26/15 A297 RMK A01 T02640149  RH  049%=      5-min Rain = 0
KLA1 190023Z 15009KT 26/15 A297 RMK A01 T02640150  RH  050%=      5-min Rain = 0
KLA1 190024Z 14007KT 26/15 A297 RMK A01 T02630150  RH  050%=      5-min Rain = 0
KLA1 190025Z 14007KT 26/15 A297 RMK A01 T02630150  RH  050%=      5-min Rain = 0
KLA1 190026Z 14009KT 26/15 A297 RMK A01 T02620151  RH  050%=      5-min Rain = 0
KLA1 190027Z 13009KT 26/15 A297 RMK A01 T02620150  RH  050%=      5-min Rain = 0
KLA1 190028Z 13008KT 26/15 A297 RMK A01 T02620150  RH  050%=      5-min Rain = 0
KLA1 190029Z 13007KT 26/15 A297 RMK A01 T02620150  RH  050%=      5-min Rain = 0
KLA1 190030Z 13006KT 26/15 A297 RMK A01 T02610150  RH  050%=      5-min Rain = 0
KLA1 190031Z 13006KT 26/15 A297 RMK A01 T02600150  RH  051%=      5-min Rain = 0
KLA1 190032Z 13006KT 26/15 A297 RMK A01 T02600150  RH  051%=      5-min Rain = 0
KLA1 190033Z 13007KT 26/15 A297 RMK A01 T02590150  RH  051%=      5-min Rain = 0
KLA1 190034Z 13005KT 26/15 A297 RMK A01 T02580150  RH  051%=      5-min Rain = 0
KLA1 190035Z 14006KT 26/15 A297 RMK A01 T02570150  RH  052%=      5-min Rain = 0
KLA1 190036Z 14008KT 26/15 A297 RMK A01 T02570151  RH  052%=      5-min Rain = 0
KLA1 190037Z 14007KT 26/15 A297 RMK A01 T02560151  RH  052%=      5-min Rain = 0
KLA1 190038Z 13008KT 26/15 A297 RMK A01 T02560151  RH  052%=      5-min Rain = 0
KLA1 190039Z 14008KT 26/15 A297 RMK A01 T02570151  RH  052%=      5-min Rain = 0
KLA1 190040Z 14007KT 26/15 A297 RMK A01 T02560151  RH  052%=      5-min Rain = 0
KLA1 190041Z 14007KT 26/15 A297 RMK A01 T02560151  RH  052%=      5-min Rain = 0
KLA1 190042Z 14009KT 26/15 A297 RMK A01 T02550152  RH  053%=      5-min Rain = 0
KLA1 190043Z 14009KT 26/15 A297 RMK A01 T02550152  RH  053%=      5-min Rain = 0
KLA1 190044Z 13011KT 26/15 A297 RMK A01 T02560153  RH  053%=      5-min Rain = 0
KLA1 190045Z 13010KT 26/15 A297 RMK A01 T02560153  RH  053%=      5-min Rain = 0
KLA1 190046Z 14007KT 26/15 A297 RMK A01 T02560153  RH  053%=      5-min Rain = 0
KLA1 190047Z 14008KT 26/15 A297 RMK A01 T02560153  RH  053%=      5-min Rain = 0
KLA1 190048Z 14010KT 26/15 A297 RMK A01 T02550153  RH  053%=      5-min Rain = 0
KLA1 190049Z 14008KT 26/15 A297 RMK A01 T02550153  RH  053%=      5-min Rain = 0
KLA1 190050Z 13007KT 25/15 A297 RMK A01 T02540153  RH  054%=      5-min Rain = 0
KLA1 190051Z 13009KT 25/15 A297 RMK A01 T02540153  RH  054%=      5-min Rain = 0
KLA1 190052Z 13009KT 25/15 A297 RMK A01 T02540154  RH  054%=      5-min Rain = 0
KLA1 190053Z 13008KT 25/15 A297 RMK A01 T02530154  RH  054%=      5-min Rain = 0
KLA1 190054Z 13007KT 25/15 A2971 RMK A01 T02530154  RH  054%=      5-min Rain = 0
KLA1 190055Z 13006KT 25/15 A2971 RMK A01 T02530154  RH  054%=      5-min Rain = 0
KLA1 190056Z 13008KT 25/15 A2971 RMK A01 T02520154  RH  054%=      5-min Rain = 0
KLA1 190057Z 13007KT 25/15 A2971 RMK A01 T02520154  RH  055%=      5-min Rain = 0
KLA1 190058Z 13007KT 25/15 A2971 RMK A01 T02510154  RH  055%=      5-min Rain = 0
KLA1 190059Z 13008KT 25/15 A2971 RMK A01 T02510154  RH  055%=      5-min Rain = 0
KLA1 190100Z 13007KT 25/15 A2971 RMK A01 T02510154  RH  055%=      5-min Rain = 0
KLA1 190101Z 13006KT 25/15 A2971 RMK A01 T02510154  RH  055%=      5-min Rain = 0
KLA1 190102Z 13006KT 25/15 A2971 RMK A01 T02500154  RH  055%=      5-min Rain = 0
KLA1 190103Z 13005KT 25/15 A2971 RMK A01 T02490154  RH  055%=      5-min Rain = 0
KLA1 190104Z 13007KT 25/15 A2971 RMK A01 T02490154  RH  056%=      5-min Rain = 0
KLA1 190105Z 13007KT 25/15 A2971 RMK A01 T02480154  RH  056%=      5-min Rain = 0
KLA1 190106Z 13007KT 25/16 A2971 RMK A01 T02490155  RH  056%=      5-min Rain = 0
KLA1 190107Z 13007KT 25/16 A2971 RMK A01 T02490155  RH  056%=      5-min Rain = 0
KLA1 190108Z 13006KT 25/16 A2971 RMK A01 T02490155  RH  056%=      5-min Rain = 0
KLA1 190109Z 13008KT 25/16 A2971 RMK A01 T02480155  RH  056%=      5-min Rain = 0
KLA1 190110Z 13008KT 25/16 A2971 RMK A01 T02480155  RH  056%=      5-min Rain = 0
KLA1 190111Z 13008KT 25/16 A2971 RMK A01 T02480155  RH  056%=      5-min Rain = 0
KLA1 190112Z 13008KT 25/16 A2971 RMK A01 T02470155  RH  057%=      5-min Rain = 0
KLA1 190113Z 14007KT 25/16 A2972 RMK A01 T02470156  RH  057%=      5-min Rain = 0
KLA1 190114Z 14009KT 25/16 A2972 RMK A01 T02470156  RH  057%=      5-min Rain = 0
KLA1 190115Z 14007KT 25/16 A2972 RMK A01 T02470156  RH  057%=      5-min Rain = 0
KLA1 190116Z 13008KT 25/16 A2972 RMK A01 T02460156  RH  057%=      5-min Rain = 0
KLA1 190117Z 13007KT 25/16 A2972 RMK A01 T02460156  RH  057%=      5-min Rain = 0
KLA1 190118Z 13007KT 25/16 A2972 RMK A01 T02460156  RH  057%=      5-min Rain = 0
KLA1 190119Z 13007KT 25/16 A2972 RMK A01 T02460157  RH  058%=      5-min Rain = 0
KLA1 190120Z 13006KT 25/16 A2972 RMK A01 T02460157  RH  058%=      5-min Rain = 0
KLA1 190121Z 12006KT 25/16 A2972 RMK A01 T02450156  RH  058%=      5-min Rain = 0
KLA1 190122Z 13006KT 25/16 A2972 RMK A01 T02450157  RH  058%=      5-min Rain = 0
KLA1 190123Z 13006KT 24/16 A2972 RMK A01 T02440156  RH  058%=      5-min Rain = 0
KLA1 190124Z 13006KT 24/16 A2973 RMK A01 T02430157  RH  058%=      5-min Rain = 0
KLA1 190125Z 13007KT 24/16 A2973 RMK A01 T02430158  RH  059%=      5-min Rain = 0
KLA1 190126Z 13007KT 24/16 A2973 RMK A01 T02430158  RH  059%=      5-min Rain = 0
KLA1 190127Z 13006KT 24/16 A2973 RMK A01 T02430158  RH  059%=      5-min Rain = 0
KLA1 190128Z 13006KT 24/16 A2973 RMK A01 T02430158  RH  059%=      5-min Rain = 0
KLA1 190129Z 13008KT 24/16 A2973 RMK A01 T02420158  RH  059%=      5-min Rain = 0
KLA1 190130Z 13006KT 24/16 A2973 RMK A01 T02420159  RH  060%=      5-min Rain = 0
KLA1 190131Z 14006KT 24/16 A2973 RMK A01 T02430159  RH  059%=      5-min Rain = 0
KLA1 190132Z 14006KT 24/16 A2973 RMK A01 T02430159  RH  059%=      5-min Rain = 0
KLA1 190133Z 14007KT 24/16 A2973 RMK A01 T02420159  RH  060%=      5-min Rain = 0
KLA1 190134Z 14006KT 24/16 A2974 RMK A01 T02420159  RH  060%=      5-min Rain = 0
KLA1 190135Z 14007KT 24/16 A2974 RMK A01 T02410159  RH  060%=      5-min Rain = 0
KLA1 190136Z 14007KT 24/16 A2974 RMK A01 T02410159  RH  060%=      5-min Rain = 0
KLA1 190137Z 15006KT 24/16 A2974 RMK A01 T02410159  RH  060%=      5-min Rain = 0
KLA1 190138Z 15006KT 24/16 A2974 RMK A01 T02410159  RH  060%=      5-min Rain = 0
KLA1 190139Z 15006KT 24/16 A2974 RMK A01 T02420160  RH  060%=      5-min Rain = 0
KLA1 190140Z 15007KT 24/16 A2974 RMK A01 T02410160  RH  060%=      5-min Rain = 0
KLA1 190141Z 14006KT 24/16 A2974 RMK A01 T02410160  RH  060%=      5-min Rain = 0
KLA1 190142Z 15008KT 24/16 A2974 RMK A01 T02420160  RH  060%=      5-min Rain = 0
KLA1 190143Z 14007KT 24/16 A2974 RMK A01 T02420160  RH  060%=      5-min Rain = 0
KLA1 190144Z 14007KT 24/16 A2974 RMK A01 T02420160  RH  060%=      5-min Rain = 0
KLA1 190145Z 15009KT 24/16 A2974 RMK A01 T02420160  RH  060%=      5-min Rain = 0
KLA1 190146Z 14007KT 24/16 A2974 RMK A01 T02420161  RH  061%=      5-min Rain = 0
KLA1 190147Z 14006KT 24/16 A2974 RMK A01 T02420161  RH  060%=      5-min Rain = 0
KLA1 190148Z 14006KT 24/16 A2974 RMK A01 T02420161  RH  060%=      5-min Rain = 0
KLA1 190149Z 14006KT 24/16 A2974 RMK A01 T02420161  RH  060%=      5-min Rain = 0
KLA1 190150Z 14005KT 24/16 A2974 RMK A01 T02420161  RH  061%=      5-min Rain = 0
KLA1 190151Z 14004KT 24/16 A2974 RMK A01 T02410160  RH  061%=      5-min Rain = 0
KLA1 190152Z 13004KT 24/16 A2974 RMK A01 T02400161  RH  061%=      5-min Rain = 0
KLA1 190153Z 13004KT 24/16 A2974 RMK A01 T02400161  RH  061%=      5-min Rain = 0
KLA1 190154Z 14007KT 24/16 A2974 RMK A01 T02390161  RH  062%=      5-min Rain = 0
KLA1 190155Z 15007KT 24/16 A2974 RMK A01 T02390162  RH  062%=      5-min Rain = 0
KLA1 190156Z 14006KT 24/16 A2974 RMK A01 T02400161  RH  062%=      5-min Rain = 0
KLA1 190157Z 14006KT 24/16 A2974 RMK A01 T02400161  RH  061%=      5-min Rain = 0
KLA1 190158Z 14007KT 24/16 A2974 RMK A01 T02400161  RH  061%=      5-min Rain = 0
KLA1 190159Z 13006KT 24/16 A2974 RMK A01 T02400162  RH  062%=      5-min Rain = 0
KLA1 190200Z 13005KT 24/16 A2974 RMK A01 T02400162  RH  062%=      5-min Rain = 0
KLA1 190201Z 13004KT 24/16 A2974 RMK A01 T02400162  RH  062%=      5-min Rain = 0
KLA1 190202Z 12005KT 24/16 A2975 RMK A01 T02390161  RH  062%=      5-min Rain = 0
KLA1 190203Z 12005KT 24/16 A2975 RMK A01 T02380161  RH  062%=      5-min Rain = 0
KLA1 190204Z 12005KT 24/16 A2974 RMK A01 T02370161  RH  062%=      5-min Rain = 0
KLA1 190205Z 12005KT 24/16 A2974 RMK A01 T02360161  RH  063%=      5-min Rain = 0
KLA1 190206Z 12006KT 24/16 A2974 RMK A01 T02360161  RH  063%=      5-min Rain = 0
KLA1 190207Z 12006KT 24/16 A2975 RMK A01 T02350161  RH  063%=      5-min Rain = 0
KLA1 190208Z 12006KT 24/16 A2975 RMK A01 T02350161  RH  063%=      5-min Rain = 0
KLA1 190209Z 13007KT 24/16 A2975 RMK A01 T02350162  RH  063%=      5-min Rain = 0
KLA1 190210Z 12005KT 24/16 A2975 RMK A01 T02360162  RH  063%=      5-min Rain = 0
KLA1 190211Z 12005KT 24/16 A2975 RMK A01 T02360162  RH  063%=      5-min Rain = 0
KLA1 190212Z 12006KT 24/16 A2975 RMK A01 T02360162  RH  063%=      5-min Rain = 0
KLA1 190213Z 12007KT 24/16 A2975 RMK A01 T02360162  RH  063%=      5-min Rain = 0
KLA1 190214Z 12006KT 24/16 A2975 RMK A01 T02360162  RH  063%=      5-min Rain = 0
KLA1 190215Z 12006KT 24/16 A2975 RMK A01 T02370162  RH  063%=      5-min Rain = 0
KLA1 190216Z 12006KT 24/16 A2975 RMK A01 T02370162  RH  063%=      5-min Rain = 0
KLA1 190217Z 12006KT 24/16 A2975 RMK A01 T02370162  RH  063%=      5-min Rain = 0
KLA1 190218Z 12006KT 24/16 A2975 RMK A01 T02370162  RH  063%=      5-min Rain = 0
KLA1 190219Z 12006KT 24/16 A2975 RMK A01 T02370163  RH  063%=      5-min Rain = 0
KLA1 190220Z 12006KT 24/16 A2975 RMK A01 T02360163  RH  063%=      5-min Rain = 0
KLA1 190221Z 12006KT 24/16 A2975 RMK A01 T02360162  RH  063%=      5-min Rain = 0
KLA1 190222Z 12007KT 24/16 A2975 RMK A01 T02360162  RH  063%=      5-min Rain = 0
KLA1 190223Z 13007KT 24/16 A2975 RMK A01 T02360163  RH  063%=      5-min Rain = 0
KLA1 190224Z 13007KT 24/16 A2975 RMK A01 T02360163  RH  064%=      5-min Rain = 0
KLA1 190225Z 12007KT 24/16 A2975 RMK A01 T02360163  RH  063%=      5-min Rain = 0
KLA1 190226Z 13007KT 24/16 A2975 RMK A01 T02370163  RH  063%=      5-min Rain = 0
KLA1 190227Z 13007KT 24/16 A2975 RMK A01 T02370163  RH  063%=      5-min Rain = 0
KLA1 190228Z 13007KT 24/16 A2975 RMK A01 T02370163  RH  063%=      5-min Rain = 0
KLA1 190229Z 13008KT 24/16 A2975 RMK A01 T02370163  RH  063%=      5-min Rain = 0
KLA1 190230Z 13008KT 24/16 A2975 RMK A01 T02370163  RH  063%=      5-min Rain = 0
KLA1 190231Z 13007KT 24/16 A2975 RMK A01 T02370163  RH  063%=      5-min Rain = 0
KLA1 190232Z 13007KT 24/16 A2975 RMK A01 T02370163  RH  063%=      5-min Rain = 0
KLA1 190233Z 13007KT 24/16 A2975 RMK A01 T02370163  RH  063%=      5-min Rain = 0
KLA1 190234Z 13007KT 24/16 A2975 RMK A01 T02370163  RH  063%=      5-min Rain = 0
KLA1 190235Z 13008KT 24/16 A2975 RMK A01 T02370163  RH  063%=      5-min Rain = 0
KLA1 190236Z 13008KT 24/16 A2975 RMK A01 T02370163  RH  063%=      5-min Rain = 0
KLA1 190237Z 14008KT 24/16 A2975 RMK A01 T02370164  RH  064%=      5-min Rain = 0
KLA1 190238Z 13007KT 24/16 A2975 RMK A01 T02370164  RH  064%=      5-min Rain = 0
KLA1 190239Z 14007KT 24/16 A2975 RMK A01 T02360164  RH  064%=      5-min Rain = 0
KLA1 190240Z 14008KT 24/16 A2975 RMK A01 T02360164  RH  064%=      5-min Rain = 0
KLA1 190241Z 14008KT 24/16 A2975 RMK A01 T02370164  RH  064%=      5-min Rain = 0
KLA1 190242Z 14007KT 24/16 A2976 RMK A01 T02370164  RH  064%=      5-min Rain = 0
KLA1 190243Z 14006KT 24/16 A2976 RMK A01 T02370164  RH  064%=      5-min Rain = 0
KLA1 190244Z 14006KT 24/16 A2976 RMK A01 T02370164  RH  064%=      5-min Rain = 0
KLA1 190245Z 14006KT 24/16 A2976 RMK A01 T02360164  RH  064%=      5-min Rain = 0
KLA1 190246Z 14005KT 24/16 A2976 RMK A01 T02360164  RH  064%=      5-min Rain = 0
KLA1 190247Z 14005KT 24/16 A2976 RMK A01 T02360164  RH  064%=      5-min Rain = 0
KLA1 190248Z 14005KT 24/16 A2976 RMK A01 T02360164  RH  064%=      5-min Rain = 0
KLA1 190249Z 13005KT 24/16 A2976 RMK A01 T02350164  RH  064%=      5-min Rain = 0
KLA1 190250Z 13006KT 24/16 A2976 RMK A01 T02350164  RH  064%=      5-min Rain = 0
KLA1 190251Z 12006KT 24/16 A2976 RMK A01 T02350164  RH  064%=      5-min Rain = 0
KLA1 190252Z 12006KT 24/16 A2976 RMK A01 T02350164  RH  064%=      5-min Rain = 0
KLA1 190253Z 11006KT 24/16 A2976 RMK A01 T02350164  RH  064%=      5-min Rain = 0
KLA1 190254Z 12006KT 24/16 A2976 RMK A01 T02350164  RH  064%=      5-min Rain = 0
KLA1 190255Z 12006KT 24/16 A2976 RMK A01 T02350164  RH  064%=      5-min Rain = 0
KLA1 190256Z 12005KT 24/16 A2976 RMK A01 T02350164  RH  064%=      5-min Rain = 0
KLA1 190257Z 12004KT 24/16 A2976 RMK A01 T02350164  RH  064%=      5-min Rain = 0
KLA1 190258Z 12005KT 23/16 A2976 RMK A01 T02340163  RH  064%=      5-min Rain = 0
KLA1 190259Z 12005KT 23/16 A2976 RMK A01 T02340164  RH  065%=      5-min Rain = 0
KLA1 190300Z 12005KT 23/16 A2976 RMK A01 T02340164  RH  065%=      5-min Rain = 0
KLA1 190301Z 12005KT 23/16 A2976 RMK A01 T02330163  RH  065%=      5-min Rain = 0
KLA1 190302Z 12005KT 23/16 A2976 RMK A01 T02320163  RH  065%=      5-min Rain = 0
KLA1 190303Z 12005KT 23/16 A2976 RMK A01 T02320164  RH  065%=      5-min Rain = 0
KLA1 190304Z 12005KT 23/16 A2976 RMK A01 T02320164  RH  065%=      5-min Rain = 0
KLA1 190305Z 12006KT 23/16 A2976 RMK A01 T02320164  RH  066%=      5-min Rain = 0
KLA1 190306Z 12005KT 23/16 A2976 RMK A01 T02310164  RH  066%=      5-min Rain = 0
KLA1 190307Z 12006KT 23/16 A2976 RMK A01 T02310164  RH  066%=      5-min Rain = 0
KLA1 190308Z 13007KT 23/16 A2976 RMK A01 T02310164  RH  066%=      5-min Rain = 0
KLA1 190309Z 13006KT 23/16 A2976 RMK A01 T02320164  RH  066%=      5-min Rain = 0
KLA1 190310Z 13006KT 23/16 A2976 RMK A01 T02330164  RH  065%=      5-min Rain = 0
KLA1 190311Z 13006KT 23/16 A2976 RMK A01 T02330164  RH  065%=      5-min Rain = 0
KLA1 190312Z 12006KT 23/16 A2976 RMK A01 T02320164  RH  065%=      5-min Rain = 0
KLA1 190313Z 12007KT 23/16 A2976 RMK A01 T02320164  RH  065%=      5-min Rain = 0
KLA1 190314Z 13007KT 23/16 A2977 RMK A01 T02330164  RH  065%=      5-min Rain = 0
KLA1 190315Z 13006KT 23/16 A2977 RMK A01 T02330164  RH  065%=      5-min Rain = 0
KLA1 190316Z 13005KT 23/16 A2977 RMK A01 T02330164  RH  065%=      5-min Rain = 0
KLA1 190317Z 13005KT 23/16 A2977 RMK A01 T02330164  RH  065%=      5-min Rain = 0
KLA1 190318Z 13006KT 23/16 A2977 RMK A01 T02330164  RH  065%=      5-min Rain = 0
KLA1 190319Z 12005KT 23/16 A2976 RMK A01 T02330164  RH  065%=      5-min Rain = 0
KLA1 190320Z 12005KT 23/16 A2976 RMK A01 T02330164  RH  065%=      5-min Rain = 0
KLA1 190321Z 13004KT 23/16 A2977 RMK A01 T02330164  RH  065%=      5-min Rain = 0
KLA1 190322Z 13005KT 23/16 A2977 RMK A01 T02320164  RH  066%=      5-min Rain = 0
KLA1 190323Z 13004KT 23/16 A2977 RMK A01 T02310164  RH  066%=      5-min Rain = 0
KLA1 190324Z 14004KT 23/16 A2977 RMK A01 T02310164  RH  066%=      5-min Rain = 0
KLA1 190325Z 12005KT 23/16 A2976 RMK A01 T02300164  RH  066%=      5-min Rain = 0
KLA1 190326Z 11006KT 23/16 A2976 RMK A01 T02300164  RH  066%=      5-min Rain = 0
KLA1 190327Z 12006KT 23/16 A2977 RMK A01 T02310164  RH  066%=      5-min Rain = 0
KLA1 190328Z 13006KT 23/16 A2976 RMK A01 T02310164  RH  066%=      5-min Rain = 0
KLA1 190329Z 13006KT 23/16 A2976 RMK A01 T02320164  RH  066%=      5-min Rain = 0
KLA1 190330Z 13007KT 23/17 A2977 RMK A01 T02320165  RH  066%=      5-min Rain = 0
KLA1 190331Z 13006KT 23/17 A2977 RMK A01 T02330165  RH  066%=      5-min Rain = 0
KLA1 190332Z 13004KT 23/16 A2977 RMK A01 T02320164  RH  066%=      5-min Rain = 0
KLA1 190333Z 12006KT 23/17 A2977 RMK A01 T02330165  RH  065%=      5-min Rain = 0
KLA1 190334Z 13005KT 23/17 A2977 RMK A01 T02330165  RH  065%=      5-min Rain = 0
KLA1 190335Z 14006KT 23/16 A2977 RMK A01 T02330164  RH  065%=      5-min Rain = 0
KLA1 190336Z 13005KT 23/17 A2977 RMK A01 T02330165  RH  065%=      5-min Rain = 0
KLA1 190337Z 12007KT 23/17 A2977 RMK A01 T02330165  RH  066%=      5-min Rain = 0
KLA1 190338Z 15006KT 23/17 A2977 RMK A01 T02330165  RH  066%=      5-min Rain = 0
KLA1 190339Z 12005KT 23/17 A2977 RMK A01 T02330165  RH  065%=      5-min Rain = 0
KLA1 190340Z 13009KT 23/17 A2977 RMK A01 T02330165  RH  065%=      5-min Rain = 0
KLA1 190341Z 14006KT 23/17 A2977 RMK A01 T02340165  RH  065%=      5-min Rain = 0
KLA1 190342Z 14005KT 23/17 A2977 RMK A01 T02340165  RH  065%=      5-min Rain = 0
KLA1 190343Z 14006KT 23/17 A2977 RMK A01 T02340165  RH  065%=      5-min Rain = 0
KLA1 190344Z 14005KT 23/17 A2977 RMK A01 T02330165  RH  065%=      5-min Rain = 0
KLA1 190345Z 14005KT 23/17 A2977 RMK A01 T02320165  RH  066%=      5-min Rain = 0
KLA1 190346Z 14005KT 23/17 A2977 RMK A01 T02320165  RH  066%=      5-min Rain = 0
KLA1 190347Z 15006KT 23/17 A2977 RMK A01 T02320165  RH  066%=      5-min Rain = 0
KLA1 190348Z 14006KT 23/17 A2977 RMK A01 T02310165  RH  066%=      5-min Rain = 0
KLA1 190349Z 14006KT 23/17 A2977 RMK A01 T02310165  RH  066%=      5-min Rain = 0
KLA1 190350Z 15007KT 23/17 A2978 RMK A01 T02310165  RH  066%=      5-min Rain = 0
KLA1 190351Z 15007KT 23/17 A2978 RMK A01 T02310165  RH  066%=      5-min Rain = 0
KLA1 190352Z 15005KT 23/17 A2978 RMK A01 T02310165  RH  066%=      5-min Rain = 0
KLA1 190353Z 16004KT 23/17 A2978 RMK A01 T02310165  RH  066%=      5-min Rain = 0
KLA1 190354Z 15005KT 23/17 A2978 RMK A01 T02310165  RH  066%=      5-min Rain = 0
KLA1 190355Z 14005KT 23/17 A2978 RMK A01 T02300165  RH  067%=      5-min Rain = 0
KLA1 190356Z 15004KT 23/16 A2978 RMK A01 T02300164  RH  067%=      5-min Rain = 0
KLA1 190357Z 15003KT 23/17 A2978 RMK A01 T02300165  RH  067%=      5-min Rain = 0
KLA1 190358Z 14003KT 23/16 A2978 RMK A01 T02290164  RH  067%=      5-min Rain = 0
KLA1 190359Z 14003KT 23/16 A2978 RMK A01 T02280164  RH  067%=      5-min Rain = 0
KLA1 190400Z 13002KT 23/16 A2978 RMK A01 T02270164  RH  067%=      5-min Rain = 0
KLA1 190401Z 11001KT 23/16 A2978 RMK A01 T02270164  RH  067%=      5-min Rain = 0
KLA1 190402Z 10001KT 23/16 A2978 RMK A01 T02260164  RH  068%=      5-min Rain = 0
KLA1 190403Z 09001KT 23/16 A2978 RMK A01 T02260164  RH  068%=      5-min Rain = 0
KLA1 190404Z 09001KT 23/16 A2978 RMK A01 T02260164  RH  068%=      5-min Rain = 0
KLA1 190405Z 09001KT 23/17 A2978 RMK A01 T02260165  RH  068%=      5-min Rain = 0
KLA1 190406Z 11001KT 23/17 A2978 RMK A01 T02260165  RH  068%=      5-min Rain = 0
KLA1 190407Z 11002KT 23/16 A2978 RMK A01 T02250164  RH  069%=      5-min Rain = 0
KLA1 190408Z 12001KT 23/17 A2978 RMK A01 T02250165  RH  069%=      5-min Rain = 0
KLA1 190409Z 11001KT 23/16 A2978 RMK A01 T02250164  RH  069%=      5-min Rain = 0
KLA1 190410Z 11002KT 23/17 A2978 RMK A01 T02250165  RH  069%=      5-min Rain = 0
KLA1 190411Z 12003KT 22/16 A2978 RMK A01 T02240164  RH  069%=      5-min Rain = 0
KLA1 190412Z 12003KT 22/16 A2978 RMK A01 T02230163  RH  069%=      5-min Rain = 0
KLA1 190413Z 13003KT 22/16 A2978 RMK A01 T02220163  RH  069%=      5-min Rain = 0
KLA1 190414Z 12003KT 22/16 A2978 RMK A01 T02210163  RH  070%=      5-min Rain = 0
KLA1 190415Z 13004KT 22/16 A2978 RMK A01 T02210163  RH  070%=      5-min Rain = 0
KLA1 190416Z 14005KT 22/16 A2978 RMK A01 T02200164  RH  070%=      5-min Rain = 0
KLA1 190417Z 13004KT 22/16 A2978 RMK A01 T02210163  RH  070%=      5-min Rain = 0
KLA1 190418Z 12005KT 22/16 A2978 RMK A01 T02210163  RH  070%=      5-min Rain = 0
KLA1 190419Z 13005KT 22/16 A2978 RMK A01 T02220164  RH  070%=      5-min Rain = 0
KLA1 190420Z 13005KT 22/16 A2978 RMK A01 T02210163  RH  070%=      5-min Rain = 0
KLA1 190421Z 14004KT 22/16 A2978 RMK A01 T02210163  RH  070%=      5-min Rain = 0
KLA1 190422Z 15004KT 22/16 A2978 RMK A01 T02210164  RH  070%=      5-min Rain = 0
KLA1 190423Z 16004KT 22/16 A2978 RMK A01 T02210163  RH  070%=      5-min Rain = 0
KLA1 190424Z 16003KT 22/16 A2979 RMK A01 T02210164  RH  070%=      5-min Rain = 0
KLA1 190425Z 16004KT 22/16 A2979 RMK A01 T02210164  RH  070%=      5-min Rain = 0
KLA1 190426Z 18002KT 22/16 A2979 RMK A01 T02210163  RH  070%=      5-min Rain = 0
KLA1 190427Z 18002KT 22/16 A2979 RMK A01 T02210163  RH  070%=      5-min Rain = 0
KLA1 190428Z 18001KT 22/16 A2979 RMK A01 T02210164  RH  070%=      5-min Rain = 0
KLA1 190429Z 20001KT 22/16 A2979 RMK A01 T02210164  RH  070%=      5-min Rain = 0
KLA1 190430Z 20002KT 22/16 A2979 RMK A01 T02200164  RH  070%=      5-min Rain = 0
KLA1 190431Z 20001KT 22/16 A2979 RMK A01 T02190164  RH  071%=      5-min Rain = 0
KLA1 190432Z 21002KT 22/16 A2979 RMK A01 T02190164  RH  071%=      5-min Rain = 0
KLA1 190433Z 22002KT 22/16 A298 RMK A01 T02190164  RH  071%=      5-min Rain = 0
KLA1 190434Z 18004KT 22/16 A298 RMK A01 T02190164  RH  071%=      5-min Rain = 0
KLA1 190435Z 19003KT 22/17 A298 RMK A01 T02200165  RH  071%=      5-min Rain = 0
KLA1 190436Z 19004KT 22/16 A298 RMK A01 T02210164  RH  070%=      5-min Rain = 0
KLA1 190437Z 20004KT 22/16 A298 RMK A01 T02210164  RH  070%=      5-min Rain = 0
KLA1 190438Z 18003KT 22/16 A298 RMK A01 T02210164  RH  070%=      5-min Rain = 0
KLA1 190439Z 21003KT 22/16 A298 RMK A01 T02200164  RH  071%=      5-min Rain = 0
KLA1 190440Z 21003KT 22/16 A298 RMK A01 T02200164  RH  071%=      5-min Rain = 0
KLA1 190441Z 22003KT 22/16 A298 RMK A01 T02190164  RH  071%=      5-min Rain = 0
KLA1 190442Z 24002KT 22/16 A298 RMK A01 T02180164  RH  071%=      5-min Rain = 0
KLA1 190443Z 26003KT 22/16 A298 RMK A01 T02170164  RH  072%=      5-min Rain = 0
KLA1 190444Z 28004KT 22/16 A2981 RMK A01 T02170163  RH  072%=      5-min Rain = 0
KLA1 190445Z 29004KT 22/16 A2981 RMK A01 T02160163  RH  072%=      5-min Rain = 0
KLA1 190446Z 29004KT 22/16 A2981 RMK A01 T02160164  RH  072%=      5-min Rain = 0
KLA1 190447Z 29003KT 22/16 A2981 RMK A01 T02150163  RH  072%=      5-min Rain = 0
KLA1 190448Z 29003KT 22/16 A2981 RMK A01 T02150164  RH  072%=      5-min Rain = 0
KLA1 190449Z 30003KT 22/16 A2981 RMK A01 T02150163  RH  072%=      5-min Rain = 0
KLA1 190450Z 30003KT 22/16 A2981 RMK A01 T02150163  RH  072%=      5-min Rain = 0
KLA1 190451Z 31002KT 22/16 A2981 RMK A01 T02150164  RH  073%=      5-min Rain = 0
KLA1 190452Z 33002KT 22/16 A2981 RMK A01 T02150164  RH  073%=      5-min Rain = 0
KLA1 190453Z 34001KT 22/16 A2981 RMK A01 T02150164  RH  072%=      5-min Rain = 0
KLA1 190454Z 02000KT 22/16 A2981 RMK A01 T02150163  RH  072%=      5-min Rain = 0
KLA1 190455Z 09000KT 21/16 A2981 RMK A01 T02130161  RH  072%=      5-min Rain = 0
KLA1 190456Z 09001KT 21/16 A298 RMK A01 T02110160  RH  073%=      5-min Rain = 0
KLA1 190457Z 09000KT 21/16 A298 RMK A01 T02090161  RH  074%=      5-min Rain = 0
KLA1 190458Z 00000KT 21/16 A298 RMK A01 T02090161  RH  074%=      5-min Rain = 0
KLA1 190459Z 03000KT 21/16 A298 RMK A01 T02080161  RH  074%=      5-min Rain = 0

Page generated in 0.1271 seconds.